GFSGL_925_spd_084.txt.gz
Wind_Speed
6 5 3 3 3 2 1 1 2 3 5 8 10 12 14 17 18 19 19 21 22 22 22 23 26 25 26 23 22 25 27 26 15 36 25 23 23 26 30 30 29 28 28
4 3 4 5 3 1 2 3 4 6 9 10 11 15 18 18 18 19 21 21 22 23 23 24 28 27 29 29 31 32 30 29 26 26 24 28 27 27 31 31 30 30 29
4 4 3 1 1 2 3 5 8 8 9 12 16 17 18 18 19 20 22 24 23 24 26 30 30 28 28 29 30 29 28 29 28 26 26 27 25 23 28 31 29 28 26
2 1 1 1 3 6 7 9 8 10 14 16 17 19 20 21 22 24 25 25 25 27 31 31 28 28 30 31 29 28 28 27 26 23 25 28 23 23 24 25 21 22 22
3 1 4 6 7 9 10 8 10 14 17 18 19 20 21 23 24 22 24 27 29 30 29 26 28 27 26 29 27 24 24 25 26 23 22 22 21 19 15 20 20 17 20
1 4 7 8 9 11 10 11 14 17 18 19 19 22 22 21 24 26 28 28 30 29 24 27 24 24 27 27 26 26 26 23 17 18 18 15 19 13 18 21 20 16 6
5 7 9 10 11 12 11 13 16 18 19 20 21 19 23 29 29 26 25 27 26 24 23 23 27 22 23 27 27 25 24 25 22 22 19 20 19 21 21 20 20 22 23
8 12 13 14 14 12 12 14 18 20 20 20 18 24 29 30 25 25 25 24 22 24 25 24 25 26 27 24 26 27 26 30 30 26 26 29 29 30 28 29 27 29 29
9 11 13 13 13 12 14 17 20 21 20 17 23 28 27 28 23 22 24 23 22 23 24 25 25 25 26 28 26 25 24 31 24 25 28 31 32 32 30 29 27 23 19
10 13 14 13 12 13 15 18 20 18 18 23 29 27 24 21 21 22 23 23 20 21 21 23 20 23 26 21 24 23 21 20 21 28 30 31 30 30 27 29 22 17 15
10 11 11 11 11 13 16 18 17 18 21 27 26 25 20 20 22 23 23 23 23 21 19 16 16 18 22 23 24 22 16 24 23 23 32 32 27 27 26 25 24 23 17
9 10 11 12 12 14 16 17 17 20 24 26 24 21 20 20 21 21 23 23 24 22 19 19 20 19 22 25 23 24 25 22 19 23 20 7 9 13 16 20 21 23 25
11 11 12 13 15 15 16 18 21 22 24 22 18 19 17 23 18 22 22 23 25 23 19 24 22 20 20 21 21 19 17 16 17 16 12 13 12 14 16 18 18 20 22
10 11 12 15 15 14 16 18 19 24 21 18 20 14 20 20 21 24 28 22 19 21 24 19 15 18 19 17 18 16 13 13 14 15 14 16 16 15 17 20 20 17 15
9 11 14 14 14 15 18 19 21 20 18 21 19 20 21 17 22 26 26 24 23 22 24 19 18 16 16 16 17 17 15 14 14 14 14 15 16 17 19 18 19 16 13
10 12 13 14 14 16 20 24 21 18 19 19 21 21 23 22 25 25 26 25 24 23 20 15 17 17 16 16 12 13 15 15 14 15 16 16 16 18 19 20 18 17 15
10 12 14 14 14 18 20 22 18 21 19 20 20 22 21 22 24 24 24 25 22 22 16 17 17 17 17 16 15 13 15 17 15 15 16 17 19 20 21 19 19 19 20
12 13 14 13 14 18 21 23 19 14 19 22 22 23 21 22 23 25 25 22 22 20 16 22 14 20 16 17 15 16 15 15 15 16 17 19 20 21 20 18 19 20 20
13 14 13 13 16 16 22 20 15 17 18 19 23 22 23 24 23 23 21 19 20 21 19 22 18 21 17 17 16 15 16 15 15 15 17 20 21 20 21 22 21 24 24
14 13 12 14 17 20 21 16 17 17 18 19 20 22 26 24 21 24 23 22 22 21 23 22 23 21 20 18 18 17 15 15 14 15 18 20 22 21 23 25 24 22 19
14 14 14 15 18 19 17 16 17 18 18 20 21 21 26 24 23 23 24 23 23 25 26 25 23 23 21 18 17 15 15 15 15 16 18 19 21 24 26 24 25 10 3
13 14 15 18 18 17 16 19 18 18 19 20 22 23 25 23 22 24 25 26 28 28 29 28 26 23 21 18 15 14 14 15 15 16 18 19 23 24 26 25 20 6 8
13 14 16 19 17 15 19 18 19 21 21 21 22 24 24 24 25 26 27 29 29 30 30 29 27 24 22 17 14 13 14 15 15 15 17 20 24 25 25 23 20 5 7
14 14 16 19 15 17 19 19 19 21 25 19 23 24 23 25 26 28 29 30 31 30 31 30 28 26 21 16 13 13 12 14 15 15 14 17 21 26 25 23 16 10 6
14 15 16 18 17 18 19 20 20 21 23 23 22 25 24 26 27 29 30 31 30 31 32 31 29 26 22 16 13 12 11 11 14 13 11 13 17 22 22 21 16 7 8
15 16 17 19 21 19 18 20 21 22 24 24 26 25 26 27 29 30 31 30 32 34 32 32 31 26 20 15 10 9 8 10 12 11 9 10 14 21 20 18 12 10 7

GFSGL_925_spd_087.txt.gz
Wind_Speed
13 11 9 8 7 6 5 4 3 4 5 6 7 9 10 13 15 16 17 17 17 18 17 18 20 18 19 20 19 20 21 20 19 35 26 26 27 26 25 25 25 25 25
9 8 7 6 5 3 3 3 4 5 6 8 9 11 15 17 17 17 18 17 19 20 20 19 21 20 23 22 20 22 24 26 27 29 29 28 26 24 28 27 26 24 24
8 7 6 4 3 2 3 4 6 7 7 8 12 15 17 17 18 19 19 20 21 22 22 22 23 24 24 22 22 23 23 24 25 26 28 27 26 23 24 25 23 23 23
7 6 4 2 2 4 6 7 7 7 9 13 15 17 18 19 20 22 21 20 21 22 23 24 26 26 25 25 25 26 25 24 23 22 23 28 23 21 21 23 21 18 19
8 5 2 2 4 6 7 8 8 10 12 15 17 19 19 21 18 16 19 24 26 26 25 25 25 25 25 29 29 25 25 26 24 24 20 20 21 16 15 19 19 16 18
4 1 2 4 5 6 8 9 10 12 15 18 19 20 21 20 20 25 26 27 26 26 26 24 22 24 25 25 26 26 24 26 20 15 13 15 17 18 19 18 17 15 6
2 3 5 7 9 10 12 11 13 15 18 19 20 20 19 21 26 25 24 25 26 24 22 22 24 22 23 23 26 26 26 25 23 24 21 18 18 18 19 22 22 21 22
3 5 7 9 11 12 12 12 14 16 18 19 19 17 21 24 25 23 23 24 20 22 24 23 24 24 23 23 25 27 26 26 24 21 21 24 23 23 24 27 27 28 27
3 5 8 11 11 10 10 12 15 18 18 17 18 21 23 24 22 20 23 23 21 23 22 22 22 23 24 25 27 25 23 25 25 26 25 27 30 30 31 29 28 24 20
5 6 8 8 9 10 12 14 16 17 17 18 19 21 22 20 18 19 22 24 20 20 21 22 24 22 22 23 22 22 21 21 19 21 20 21 25 31 32 30 24 19 17
5 6 7 9 10 11 13 15 15 16 17 18 21 21 18 16 17 21 22 23 21 22 19 19 16 18 19 23 22 19 14 19 21 16 17 21 28 24 22 22 23 23 22
6 7 8 9 10 11 13 13 15 16 15 19 18 19 17 16 17 20 22 23 22 23 20 17 21 21 23 21 19 21 25 22 9 11 14 18 17 12 11 14 21 21 23
6 7 9 10 12 12 12 14 14 14 15 17 16 19 23 18 18 18 21 21 23 21 18 20 21 16 21 22 20 21 20 11 13 13 15 15 13 14 14 13 12 15 19
6 8 10 12 11 13 13 14 14 14 15 16 17 18 16 21 20 20 21 21 19 18 20 15 19 19 19 17 17 13 12 12 11 13 14 16 16 16 15 14 14 14 15
7 9 11 12 13 13 13 15 14 15 15 19 18 19 18 20 21 24 25 22 21 21 22 16 16 16 16 15 14 12 11 11 13 14 13 16 17 17 17 16 16 18 18
9 10 12 11 12 11 14 17 17 16 16 17 18 19 20 21 23 23 23 24 22 21 19 16 17 17 16 16 15 15 12 12 13 14 14 15 16 17 18 18 18 19 19
10 11 11 12 10 13 14 16 19 17 14 19 19 19 19 21 21 23 22 25 20 19 15 17 16 19 13 18 13 15 15 14 13 13 15 16 17 19 19 19 20 19 20
11 13 12 11 11 13 14 16 14 15 19 21 20 21 20 21 23 21 24 20 19 18 16 18 18 20 17 18 13 16 14 13 13 13 15 17 18 20 20 20 21 20 20
13 13 11 12 13 13 14 13 14 16 17 19 21 20 21 23 20 21 19 17 18 19 19 18 20 20 20 19 18 16 14 15 14 14 15 17 18 21 22 24 24 24 23
13 12 11 11 13 12 13 13 16 16 17 17 19 20 23 22 21 21 20 20 20 20 21 20 21 21 20 19 18 17 15 14 13 14 15 16 20 21 22 25 25 22 21
12 12 11 13 12 11 12 14 16 16 17 17 19 20 23 22 21 20 21 21 21 23 23 24 24 23 21 20 18 17 14 14 13 13 15 16 19 22 25 24 24 24 12
11 11 12 12 12 12 15 17 15 16 17 19 21 21 21 20 20 21 22 23 24 25 26 26 25 24 23 21 18 17 16 13 13 13 14 17 19 21 24 24 25 9 1
12 12 11 12 12 14 16 15 17 18 18 21 21 21 21 21 22 23 24 26 27 28 29 27 27 25 23 20 16 16 16 14 13 12 14 17 18 20 23 23 20 8 2
12 12 11 11 13 13 15 16 18 19 20 21 22 21 22 22 24 25 26 28 28 29 29 29 30 27 23 20 16 15 15 14 13 13 13 16 17 20 22 24 16 7 7
13 13 11 12 12 15 16 18 18 19 21 21 22 23 24 24 25 27 29 29 30 29 31 32 30 29 25 20 16 15 14 12 13 13 12 15 18 21 23 20 19 3 3
14 14 13 13 13 15 17 18 19 20 21 22 23 24 25 26 28 29 30 30 30 33 32 31 31 28 23 18 13 11 10 10 12 13 11 12 16 20 22 20 15 5 6

GFSGL_925_spd_090.txt.gz
Wind_Speed
13 12 11 9 8 6 5 4 3 3 3 3 4 6 8 10 11 14 16 17 18 19 19 20 22 21 22 21 22 24 25 25 21 34 24 25 28 28 28 27 26 26 25
12 11 9 7 6 4 4 3 3 3 4 5 7 8 10 13 14 16 17 18 20 21 22 22 23 22 24 24 25 26 26 26 26 28 27 28 27 26 25 26 24 25 26
10 9 8 6 4 3 3 3 3 5 7 7 8 11 13 15 16 17 18 20 22 23 23 24 25 25 27 26 26 27 26 25 25 23 25 26 24 21 21 24 22 23 25
9 8 6 4 3 2 3 4 6 7 7 9 11 14 15 16 16 17 19 20 22 23 24 25 26 27 28 27 27 27 27 25 20 18 20 28 26 22 21 21 18 20 23
8 6 4 3 1 2 4 6 7 8 9 11 13 14 15 16 17 17 18 22 26 27 27 26 26 26 28 30 30 28 28 27 26 25 23 22 22 16 18 18 18 20 20
5 4 3 0 2 4 6 8 9 10 11 12 15 16 17 17 17 18 22 26 26 26 26 25 28 27 27 28 28 29 27 25 20 19 19 17 19 17 18 17 18 17 10
4 3 1 3 5 7 8 9 10 11 13 15 17 17 18 18 19 22 24 23 24 24 23 24 26 24 25 25 25 26 26 26 25 25 24 23 20 21 20 21 20 20 22
1 1 2 4 6 8 9 9 11 12 14 16 17 17 18 21 22 23 21 21 21 22 22 26 25 24 25 25 25 26 27 26 25 26 25 25 24 24 22 23 25 26 26
1 3 4 6 7 8 9 10 11 12 15 16 16 18 20 23 21 21 19 20 20 23 23 23 23 24 24 27 27 26 26 28 24 23 25 26 28 29 25 26 23 23 22
3 4 6 6 7 8 9 11 11 13 14 16 18 20 21 22 19 18 18 22 21 22 22 20 20 23 25 23 24 25 24 20 19 18 18 20 20 21 23 26 29 27 20
3 5 5 6 8 9 10 11 12 13 15 17 19 19 18 18 19 18 21 20 21 22 21 21 19 19 18 25 26 26 20 15 21 23 22 20 20 22 24 27 24 27 23
3 5 6 7 8 10 11 11 12 14 16 18 17 17 18 17 17 20 21 21 21 22 22 20 18 20 21 21 23 24 23 25 21 17 16 16 17 19 20 15 16 18 21
4 5 7 9 10 10 11 11 13 14 15 16 16 17 20 17 21 18 19 20 24 24 21 19 23 20 22 23 22 23 21 17 19 17 17 18 16 15 15 17 17 14 16
5 7 8 10 11 11 11 11 12 14 15 16 18 17 19 20 19 18 20 24 21 18 19 19 18 22 20 19 18 16 14 14 16 17 16 15 15 15 16 15 16 16 16
5 8 10 11 10 11 10 12 12 13 15 17 15 17 18 19 19 23 24 22 21 21 23 21 18 17 17 17 15 15 15 15 14 15 15 16 15 16 17 16 17 17 19
7 10 10 10 10 10 12 13 11 14 16 14 18 17 17 19 21 22 22 23 23 22 21 16 16 17 16 17 17 18 16 15 14 13 15 15 16 16 17 16 17 17 17
8 9 10 10 10 11 12 15 16 16 16 15 15 17 18 19 20 22 23 23 21 18 14 16 16 17 15 17 18 16 16 15 14 14 14 15 16 17 18 18 18 19 19
9 8 10 10 11 12 14 14 14 16 17 18 17 18 18 19 21 23 21 19 15 15 15 16 17 17 17 17 17 16 16 15 14 13 15 15 16 17 18 19 20 20 21
9 9 11 10 10 13 13 12 14 15 16 16 18 18 19 20 22 19 17 15 16 17 17 17 17 17 17 18 19 16 16 15 14 15 16 16 16 17 20 21 24 27 25
9 9 10 10 11 13 12 13 15 16 17 17 18 18 20 23 20 19 18 18 18 18 19 19 17 18 21 21 21 20 18 14 14 15 15 16 17 18 20 24 23 22 22
9 10 10 10 11 12 13 14 17 16 18 18 20 20 21 21 19 19 20 19 19 20 21 21 20 20 22 21 20 19 17 14 14 15 16 16 16 18 21 23 24 24 23
9 10 10 10 11 13 14 15 15 18 18 20 21 21 21 19 19 20 21 22 23 23 23 24 23 23 23 23 20 17 18 17 14 15 16 16 17 19 21 23 23 22 18
9 10 11 11 12 14 14 15 17 18 19 20 20 21 21 21 21 21 24 26 27 27 28 28 27 26 24 22 18 18 19 18 15 15 16 16 17 18 20 23 22 19 15
9 10 11 12 13 14 15 17 18 19 19 20 21 21 22 23 24 25 27 28 28 29 30 30 29 29 27 22 20 18 16 15 15 16 16 17 17 19 19 22 23 20 11
10 11 11 13 13 14 16 18 18 19 19 20 22 23 24 24 25 27 28 29 29 30 30 31 31 30 28 23 20 18 16 15 15 15 14 15 17 20 21 22 22 24 10
10 11 11 13 13 15 17 18 19 21 21 22 23 24 25 26 28 29 30 31 31 34 35 32 31 29 25 19 16 12 11 11 12 13 14 14 16 20 19 22 24 21 11

GFSGL_925_spd_093.txt.gz
Wind_Speed
15 13 12 11 9 8 7 5 4 3 2 2 3 5 7 9 10 12 15 16 18 18 19 20 22 21 22 21 22 22 22 21 17 31 21 23 25 25 25 26 27 27 27
14 13 11 9 8 6 5 4 2 2 2 4 6 7 9 11 12 15 16 17 18 20 21 22 24 23 23 23 23 24 24 24 25 25 24 22 24 27 26 21 22 21 22
12 10 9 7 6 4 3 2 2 4 6 7 8 9 11 13 15 16 17 19 20 21 23 24 24 24 24 24 25 25 25 25 26 23 24 26 24 23 21 22 22 23 24
10 9 7 5 4 2 1 3 5 6 7 8 10 11 13 15 16 17 18 20 21 22 23 25 26 26 26 26 26 27 26 25 22 22 22 20 21 25 24 22 21 21 21
8 7 5 4 2 0 3 4 6 7 8 10 12 13 15 16 17 17 17 19 21 24 26 27 27 26 24 27 32 29 28 28 28 25 21 24 24 22 20 21 21 20 20
6 5 3 1 1 3 5 6 8 9 11 12 14 15 17 18 17 18 18 21 24 25 26 25 25 25 28 27 29 31 30 27 24 21 20 19 21 21 21 20 20 18 11
3 3 1 2 3 5 6 8 10 11 13 14 15 17 18 19 18 19 20 22 23 24 25 25 26 25 27 25 26 26 27 25 25 24 22 23 21 23 23 23 23 22 21
1 1 2 3 5 7 8 9 11 12 13 15 16 18 18 19 19 20 21 22 22 22 24 24 27 26 27 26 25 24 26 26 26 26 25 25 25 28 21 20 21 25 24
1 3 4 5 7 7 9 10 11 12 14 16 17 18 19 20 20 21 19 19 20 22 24 25 25 25 24 24 26 28 26 28 25 26 25 25 24 25 25 25 22 18 15
3 5 6 7 7 9 11 12 13 14 16 16 17 18 18 20 19 18 19 19 19 22 23 24 23 23 25 23 24 21 23 23 23 22 24 19 19 19 21 22 20 17 16
4 5 6 7 9 10 12 13 15 16 16 18 18 18 18 17 19 19 20 22 22 21 22 22 22 22 23 23 23 21 21 25 23 18 19 20 20 20 20 19 17 19 23
5 6 7 9 10 12 13 14 15 16 17 17 18 18 15 19 19 19 23 21 22 22 23 24 22 22 23 28 24 25 27 27 20 17 17 19 19 18 18 19 22 18 19
6 7 8 10 12 13 15 15 15 15 15 17 17 17 18 17 18 21 21 20 20 27 23 23 25 25 25 24 24 25 23 17 16 16 17 17 13 14 16 17 19 22 21
8 8 10 13 14 14 13 13 13 14 16 16 17 18 17 19 20 19 20 23 24 21 22 21 23 25 25 24 22 19 17 17 17 16 16 16 15 13 15 16 17 16 17
8 10 12 13 14 13 12 13 13 14 15 18 19 17 19 19 19 24 26 24 25 23 27 23 21 18 17 18 18 17 18 16 16 16 15 14 14 14 15 15 16 17 17
10 12 12 12 13 12 13 15 13 13 18 19 19 19 20 21 24 24 24 25 26 25 23 18 17 16 17 16 16 16 16 16 16 15 15 14 14 15 16 16 17 18 18
10 11 12 12 12 13 14 16 17 19 18 17 19 19 21 22 23 23 25 26 22 21 15 17 18 18 17 17 16 17 17 15 18 17 16 15 14 15 17 17 17 17 17
10 10 11 12 12 13 15 15 16 17 18 20 20 20 22 21 22 24 23 21 16 17 17 18 18 19 18 18 17 16 16 18 17 17 16 15 15 16 17 18 18 19 19
10 10 11 12 12 13 13 15 15 17 18 20 21 21 20 21 24 22 20 16 17 18 19 18 19 20 19 18 18 19 18 18 18 18 16 16 16 16 17 20 21 24 24
9 9 10 12 12 13 14 15 16 17 19 19 20 21 23 23 19 20 19 18 19 21 22 21 22 22 22 19 20 20 19 18 17 18 16 16 17 17 19 21 22 20 20
10 11 11 11 12 13 14 15 17 17 20 20 21 22 25 25 22 21 22 18 22 23 24 24 24 24 24 22 21 20 20 20 19 17 15 15 16 18 18 20 22 24 23
10 11 11 12 12 13 16 16 17 18 20 20 22 23 24 22 22 22 23 23 25 27 27 27 27 26 26 25 24 21 19 19 19 18 16 16 17 18 18 21 23 22 21
10 11 12 12 12 14 16 17 19 19 20 21 22 23 23 23 24 24 25 26 27 28 28 28 27 28 28 28 25 22 20 20 21 17 17 16 16 18 18 20 23 23 21
10 11 12 13 12 15 16 19 19 19 21 22 23 23 24 25 26 27 27 29 30 30 31 30 29 30 30 28 26 22 19 19 19 17 16 17 18 18 20 21 24 25 23
10 11 12 13 13 15 17 19 19 20 21 23 24 25 27 27 28 29 31 31 32 33 31 33 33 32 30 27 24 19 20 19 18 16 15 16 18 19 21 23 25 24 25
10 11 12 13 14 16 18 20 21 22 23 24 25 27 28 29 30 32 33 34 34 37 38 35 33 31 26 21 17 15 14 13 12 12 14 16 18 20 22 24 27 27 26

GFSGL_925_spd_096.txt.gz
Wind_Speed
17 18 18 17 14 13 14 12 11 9 7 6 4 4 5 6 7 9 11 13 14 15 15 17 19 19 21 22 23 23 24 23 17 25 24 25 27 27 22 23 24 22 20
19 18 18 15 14 13 11 10 7 5 4 4 5 5 6 7 8 10 12 13 16 17 18 19 20 20 21 22 22 23 24 25 27 22 26 27 26 23 26 30 24 23 21
18 17 15 13 11 11 9 7 3 2 3 4 5 7 7 8 10 13 14 16 17 18 20 21 23 23 25 26 26 27 27 26 27 26 25 27 25 25 24 21 20 23 26
16 15 13 11 9 7 5 2 2 4 5 6 7 7 8 10 13 15 17 18 17 16 18 21 23 25 26 27 28 22 19 21 21 19 19 20 20 24 19 24 25 22 24
14 13 11 9 6 3 1 2 3 5 6 7 9 10 12 13 13 16 16 19 21 22 23 24 25 26 24 25 24 24 31 27 24 25 23 23 25 23 20 20 19 19 28
13 12 8 5 3 0 2 5 6 7 8 10 12 12 12 15 14 17 18 18 19 21 23 26 24 26 27 26 26 26 26 25 22 22 22 21 23 18 19 20 21 17 10
11 9 5 2 1 2 5 6 8 9 11 12 11 13 16 17 16 18 19 20 21 21 24 25 27 25 24 27 27 27 26 27 26 26 20 18 20 25 24 22 23 22 22
7 5 2 1 3 5 6 7 9 11 12 13 14 15 16 17 18 19 20 21 22 22 21 25 27 29 29 27 28 25 24 26 28 26 28 30 29 27 24 24 26 26 22
3 4 4 4 5 6 8 9 10 12 13 15 16 16 17 19 19 20 20 17 20 26 25 26 25 26 28 26 25 22 23 26 24 21 24 25 26 24 24 22 19 15 13
8 6 5 5 6 7 8 10 12 13 15 15 17 18 19 19 18 16 17 23 20 24 23 24 23 23 25 25 25 21 23 23 23 26 26 21 21 22 18 19 18 17 15
4 4 5 5 7 8 10 11 12 14 15 16 18 18 18 15 14 19 22 21 20 23 22 22 24 24 26 26 25 23 21 23 23 17 17 19 19 18 22 24 25 23 16
3 4 5 6 8 11 11 15 12 13 15 15 18 18 13 20 21 19 22 25 22 22 18 20 26 23 26 26 25 23 25 25 17 15 15 16 17 19 20 19 16 16 20
6 7 5 8 11 12 16 13 14 12 14 16 15 19 23 20 18 23 22 20 22 25 26 24 27 24 24 25 25 27 23 18 18 17 16 17 17 15 14 15 18 20 23
9 9 10 11 11 13 14 13 12 14 15 15 17 19 20 17 22 22 20 24 26 25 25 27 21 24 24 24 22 22 21 19 19 17 17 21 19 16 16 16 16 17 18
11 13 13 12 13 13 12 12 15 12 12 18 19 18 19 19 19 23 25 24 25 26 29 21 19 17 17 18 19 17 18 18 18 17 18 16 17 15 14 15 15 15 16
11 13 13 14 15 12 14 15 14 14 21 19 19 19 22 21 24 24 23 24 26 25 19 14 16 16 16 18 17 17 18 18 18 17 17 16 15 14 13 14 15 16 17
11 13 13 12 15 14 13 16 17 22 18 19 18 21 21 23 24 22 23 25 21 20 15 17 17 17 18 19 19 18 19 19 18 20 17 16 16 15 15 14 15 17 18
11 12 11 14 16 15 15 12 19 17 20 22 20 22 23 24 23 23 23 23 20 18 17 19 19 19 19 19 19 18 17 20 18 17 16 16 16 16 15 16 17 18 19
10 11 13 14 15 15 11 17 17 16 17 20 24 21 22 23 24 24 22 20 19 18 19 20 21 21 21 22 21 20 19 19 19 18 17 17 15 15 16 16 18 22 23
12 12 12 13 14 14 15 16 15 17 19 20 20 21 24 24 20 22 21 20 20 21 21 22 22 22 23 23 23 21 19 18 18 18 18 17 17 16 17 19 20 21 21
12 13 13 14 14 14 15 17 17 18 19 20 21 22 24 24 23 23 22 22 23 25 25 25 24 24 25 24 24 22 20 19 18 19 18 17 16 16 17 18 20 21 23
12 13 14 15 14 12 19 17 18 20 20 21 23 24 25 24 23 23 25 26 27 27 28 28 27 26 26 27 25 24 22 19 18 18 18 17 17 17 17 18 19 22 22
12 14 14 14 11 16 17 18 20 20 21 22 24 24 25 24 24 26 27 29 30 30 30 30 30 29 28 27 28 26 24 21 19 19 18 17 17 17 17 18 20 22 24
12 13 15 15 14 18 17 19 20 21 21 23 24 24 25 26 27 28 30 32 33 33 33 33 32 32 31 30 28 26 23 19 18 18 17 17 18 18 18 19 21 26 26
11 13 14 13 18 16 19 22 22 23 22 24 25 25 26 28 29 31 33 34 34 34 34 35 34 32 30 27 24 21 19 18 18 17 17 17 19 19 20 21 25 26 26
12 13 13 14 16 18 20 24 24 22 23 26 26 27 28 30 32 33 34 34 36 39 38 36 33 29 23 17 13 11 10 11 12 12 13 15 18 22 21 24 27 26 26

GFSGL_925_spd_102.txt.gz
Wind_Speed
23 24 24 23 22 21 21 20 21 18 15 11 9 8 6 4 3 3 2 2 4 6 8 9 8 9 11 13 15 16 18 19 14 16 23 26 26 26 26 24 24 23 24
24 25 24 23 22 21 20 16 12 11 9 6 5 4 3 3 4 4 5 6 9 11 11 12 14 15 15 14 15 17 19 20 23 19 22 25 27 26 26 26 26 24 23
25 26 25 24 22 19 16 13 10 8 6 5 4 4 4 5 6 6 7 9 11 13 13 14 12 13 17 18 20 24 26 26 26 27 20 19 25 27 26 27 28 29 31
26 24 23 20 18 15 12 10 8 6 5 4 3 3 3 4 6 8 9 9 12 13 11 14 14 16 18 21 22 24 23 21 24 22 22 22 26 25 20 20 23 24 25
23 21 18 15 12 10 8 7 5 3 2 1 2 4 6 8 8 7 8 11 13 14 15 16 18 20 18 22 24 24 25 26 20 20 18 18 17 16 15 16 16 20 25
17 15 12 11 8 7 5 3 2 1 2 4 5 6 6 6 7 8 11 15 16 16 17 17 21 18 18 18 21 22 23 24 21 19 16 13 17 20 19 19 18 15 8
13 11 10 8 8 5 3 3 2 2 3 3 4 6 8 9 11 13 15 17 16 13 13 16 16 20 23 27 24 24 22 21 23 25 21 18 18 27 24 23 23 20 23
11 10 8 7 5 4 2 2 2 3 5 7 9 10 10 12 12 14 14 15 11 12 14 16 22 26 23 22 24 25 26 22 23 24 24 25 26 26 25 24 23 25 26
11 9 7 5 3 1 1 2 5 8 9 9 10 9 11 11 10 10 13 15 16 18 18 21 20 21 22 22 23 24 20 23 22 21 23 24 24 22 22 17 14 14 12
8 5 2 1 1 2 2 5 7 9 10 9 9 8 7 8 10 13 15 18 19 17 20 18 21 20 21 20 23 24 22 19 18 21 21 21 18 15 17 18 20 17 15
4 2 1 0 1 1 2 5 8 7 7 7 8 8 11 15 19 18 17 17 17 19 18 20 18 19 22 24 24 22 15 20 19 16 15 15 16 18 19 18 18 19 16
2 3 2 1 1 2 5 5 6 6 7 9 9 13 16 19 18 16 16 17 18 18 18 21 25 24 23 26 24 19 23 24 12 13 14 16 16 18 17 16 16 17 18
5 5 4 3 4 6 7 6 4 7 7 7 12 17 22 22 18 17 17 17 18 20 23 23 24 25 24 19 19 20 20 17 17 15 17 17 17 18 15 17 18 18 18
6 5 5 6 8 7 5 5 8 4 7 11 15 18 21 19 19 21 21 21 22 21 22 24 20 14 20 17 18 19 18 17 17 17 16 17 17 18 17 17 19 17 16
5 5 7 7 8 9 7 6 8 8 11 16 17 15 17 17 20 21 21 22 21 21 24 19 18 18 18 17 17 17 17 16 17 18 17 18 18 16 18 17 17 16 14
3 6 5 8 11 10 9 10 9 12 13 13 14 17 19 21 22 21 22 21 22 23 20 18 21 19 18 17 17 16 16 17 18 18 17 17 19 19 18 17 16 16 14
4 4 6 9 10 10 11 9 14 19 14 13 15 18 18 19 19 19 21 22 19 20 19 21 21 19 16 17 17 18 18 18 20 20 19 19 19 17 15 15 14 15 14
4 4 7 8 11 11 10 12 14 16 18 19 18 17 17 17 19 21 21 21 23 20 20 20 19 20 19 18 19 20 20 19 19 19 19 16 15 14 15 16 15 14 15
5 6 7 10 10 10 10 14 16 16 18 21 23 22 20 19 21 19 20 20 20 20 20 20 22 23 23 23 22 22 21 20 20 19 19 15 16 17 16 16 15 16 17
5 6 8 9 8 9 13 15 16 18 21 21 22 22 26 23 18 23 24 22 21 22 24 24 25 25 25 25 24 23 22 20 19 20 18 17 17 18 17 16 15 14 15
6 7 7 7 7 13 13 14 18 20 21 21 23 25 23 23 23 24 24 24 25 25 26 26 27 27 27 26 25 24 23 22 20 21 19 18 17 17 18 16 15 16 17
6 7 7 7 11 11 13 16 21 21 22 21 24 25 23 24 24 25 25 26 28 29 30 30 30 30 30 29 27 25 24 22 22 21 20 17 17 17 17 16 15 16 17
6 6 6 10 10 11 15 17 23 23 22 21 23 23 24 25 26 26 28 30 31 32 32 32 32 32 31 30 28 26 25 23 23 21 19 16 17 16 16 15 16 17 17
5 5 7 9 10 13 16 16 20 21 19 22 24 24 25 27 28 29 30 32 32 32 32 32 31 31 29 27 21 18 17 16 16 17 15 16 16 16 16 18 18 19 21
5 5 7 10 12 15 17 16 18 22 23 24 25 27 29 29 29 31 31 31 31 32 31 29 27 25 20 16 11 9 8 9 11 11 12 13 16 17 19 20 21 23 25
4 5 7 9 11 14 17 18 18 22 24 25 28 29 30 30 31 31 31 31 30 27 26 24 25 21 19 16 13 10 6 4 5 7 11 14 17 20 21 24 27 26 27

GFSGL_925_spd_108.txt.gz
Wind_Speed
13 14 13 13 12 10 9 12 12 13 13 16 16 16 13 11 10 9 8 8 8 6 5 4 4 5 6 6 8 9 10 11 9 14 19 22 25 25 24 22 22 21 21
16 16 14 13 12 13 14 13 14 16 16 15 13 10 9 8 7 6 7 8 6 5 5 6 6 7 9 9 9 10 13 15 16 19 23 23 22 20 22 21 23 26 26
22 23 23 24 24 23 21 19 17 16 14 12 9 7 6 4 5 5 6 5 5 7 8 9 10 11 12 12 11 13 15 16 18 20 23 23 23 25 24 23 22 20 22
29 29 27 25 24 21 19 16 14 12 10 7 5 3 1 2 3 5 6 8 10 10 11 13 13 15 16 16 14 16 15 20 22 24 24 26 25 23 20 22 22 21 20
26 25 23 20 18 16 14 12 11 9 8 6 3 1 2 4 6 7 7 8 10 12 14 15 17 19 20 19 19 19 19 22 24 24 20 17 16 17 17 14 18 20 22
22 21 18 16 15 13 12 11 9 8 6 4 3 3 3 4 4 5 8 11 14 15 16 17 18 19 18 18 20 22 23 25 22 18 19 17 20 17 22 20 19 17 12
19 16 15 13 13 12 10 8 8 7 7 7 7 7 8 9 10 10 12 15 17 16 15 15 15 16 15 18 21 24 26 24 26 25 22 18 18 19 20 21 22 21 21
14 12 11 10 9 7 6 5 4 3 4 6 7 8 10 9 9 9 10 12 13 14 15 16 18 19 19 21 24 24 26 28 25 24 25 25 24 25 27 29 28 23 23
12 10 8 5 4 2 2 2 1 3 5 7 9 9 10 10 8 10 14 17 20 21 22 22 20 21 24 22 23 25 25 24 22 23 23 24 24 26 22 17 11 13 10
10 7 4 3 2 2 1 2 3 6 8 8 8 8 8 10 14 15 17 20 20 21 20 18 18 21 22 23 22 22 22 28 27 26 24 25 18 18 17 17 16 14 13
6 4 3 2 2 3 3 5 7 9 8 8 10 10 11 14 19 17 19 18 19 20 17 17 18 19 22 22 22 23 24 24 21 16 14 16 19 19 20 20 20 19 17
5 5 5 5 5 5 7 8 8 8 10 11 12 15 16 18 18 16 18 18 18 19 19 20 23 22 22 23 22 17 20 20 17 17 15 18 20 22 20 19 19 19 21
7 7 6 5 6 8 9 8 9 10 10 13 15 20 24 21 18 18 18 19 18 20 20 21 23 23 22 21 20 18 20 22 21 20 18 20 21 21 19 18 16 18 20
6 5 5 5 7 8 9 9 9 10 13 16 20 21 24 18 19 23 23 20 19 18 21 22 20 20 17 21 22 23 21 19 18 16 17 16 15 15 17 16 16 18 17
5 4 5 7 8 10 10 10 10 11 13 18 21 21 21 19 20 21 20 20 20 20 24 15 16 16 20 23 23 23 19 15 14 15 16 15 15 16 17 16 15 16 15
4 3 4 7 8 11 12 12 10 12 16 15 14 15 18 18 20 21 19 20 21 19 18 20 22 19 17 18 17 16 16 17 17 18 20 17 16 16 17 17 15 16 14
4 2 4 5 8 9 11 13 20 20 17 16 14 14 15 18 18 19 20 20 18 20 19 19 17 18 19 18 18 19 18 20 21 20 21 20 17 18 17 15 13 12 13
3 2 3 5 7 7 10 12 14 19 22 25 21 16 16 16 19 20 20 19 22 20 18 18 19 21 21 21 22 21 21 21 21 22 20 21 19 17 16 14 14 14 13
2 2 3 5 5 8 9 11 16 19 21 22 22 19 20 22 19 19 17 19 18 19 20 21 22 23 23 23 23 23 22 22 21 21 20 20 19 18 18 16 15 16 17
3 3 3 4 6 8 10 13 16 20 21 18 16 19 24 21 22 23 23 22 20 21 22 23 25 26 26 27 27 26 24 23 22 21 21 20 19 18 17 17 16 15 16
3 2 3 5 7 7 11 13 14 18 22 21 17 20 21 23 23 23 25 25 25 25 26 26 26 26 27 27 27 25 24 23 22 22 19 19 18 18 18 18 17 18 17
3 2 2 5 5 8 11 12 14 19 21 18 19 20 22 22 22 24 26 26 25 24 25 25 25 25 26 26 26 24 22 20 19 18 19 16 16 17 16 17 17 17 16
3 3 3 4 6 8 12 13 14 17 16 19 19 20 21 23 24 25 26 25 22 24 24 22 23 24 23 24 21 19 18 15 13 11 13 13 15 15 15 17 16 16 16
3 2 3 5 7 9 12 14 13 14 16 18 19 21 23 24 24 27 27 23 23 25 22 22 22 23 22 21 19 17 16 12 9 9 10 11 13 13 15 17 18 18 19
3 2 3 5 7 9 11 11 13 14 16 19 21 23 26 26 26 28 27 26 24 24 24 24 25 27 25 23 23 23 19 15 12 9 9 11 14 15 18 19 20 21 22
3 1 2 4 7 8 10 11 13 14 16 19 22 24 25 26 27 27 27 27 24 24 23 22 24 25 25 27 25 24 21 20 18 18 16 15 16 19 20 23 25 25 26

GFSGL_925_spd_111.txt.gz
Wind_Speed
15 14 13 9 5 8 8 8 8 10 11 16 17 15 15 14 13 12 10 9 8 8 8 7 6 7 8 8 8 10 10 10 12 14 12 15 19 20 20 18 18 18 18
20 19 17 15 13 12 13 12 11 13 12 13 14 13 12 10 8 7 7 7 7 7 7 7 8 8 9 10 12 12 12 10 11 15 17 16 17 19 19 21 20 18 20
23 24 24 24 24 24 23 22 20 19 17 15 12 9 7 5 3 4 5 6 7 7 9 10 10 11 12 13 15 13 12 12 12 12 17 17 17 16 19 20 19 18 17
32 32 30 27 26 24 22 20 17 15 13 10 8 5 3 1 2 3 5 7 9 11 12 13 13 15 16 15 15 16 16 14 13 14 16 17 18 19 16 17 17 14 15
29 28 26 24 22 20 19 17 15 13 11 8 6 4 3 3 4 5 7 8 9 12 13 15 16 17 18 18 17 18 21 22 21 16 18 19 19 17 16 17 17 18 19
25 24 20 19 17 17 15 13 11 9 7 5 5 3 3 4 5 6 7 10 12 14 14 14 17 18 19 19 20 19 19 18 21 20 19 17 20 18 18 18 19 17 16
21 19 17 15 14 12 10 8 7 5 5 5 5 6 6 7 7 8 9 11 12 11 12 13 14 14 14 14 17 19 22 24 26 26 22 23 22 20 19 20 20 20 20
18 16 15 14 12 9 7 6 5 4 4 5 6 8 10 10 10 9 10 12 14 15 15 16 18 19 17 18 18 22 23 23 21 21 22 24 22 24 22 23 24 21 16
15 14 11 8 7 5 4 3 3 3 5 8 10 11 11 11 10 11 13 15 17 18 17 18 18 19 18 17 21 22 21 21 20 22 23 24 25 25 25 23 16 10 9
11 9 6 5 4 3 2 1 2 5 6 7 7 7 8 10 13 15 15 16 19 19 18 17 18 18 20 20 20 20 20 24 21 21 21 20 21 23 20 17 12 13 15
8 7 5 5 5 3 2 2 4 5 5 6 7 8 10 12 15 15 15 16 16 17 16 15 16 18 20 21 21 22 23 20 16 12 11 13 13 14 16 14 14 13 16
8 8 8 7 4 3 4 5 4 5 6 7 9 10 11 13 13 12 15 15 16 17 17 17 19 19 21 22 22 19 20 19 8 11 15 16 16 17 18 18 17 16 17
9 9 7 5 4 5 5 5 5 6 6 8 10 13 15 14 13 12 15 15 16 17 18 18 21 20 19 18 17 17 20 18 18 16 17 16 14 13 13 13 16 15 15
8 6 5 5 5 5 6 6 6 7 9 11 14 15 16 14 13 13 15 15 16 15 19 20 21 15 15 18 18 17 15 14 15 16 16 15 14 13 13 15 15 12 12
7 6 5 4 4 6 7 6 7 8 10 13 13 13 15 15 15 18 18 18 18 18 18 15 17 16 17 15 14 14 13 11 12 12 13 14 15 13 12 12 14 12 12
7 6 3 3 4 6 6 7 8 9 10 10 11 12 13 14 17 17 18 18 18 18 18 16 16 15 15 15 16 16 14 14 14 14 14 14 14 14 13 13 13 13 12
7 6 4 3 4 4 5 7 10 13 13 12 11 11 12 14 16 17 18 18 16 15 12 14 15 15 16 16 16 16 17 16 16 16 16 16 15 15 15 14 13 12 12
6 4 4 3 3 5 6 8 9 13 15 16 13 12 14 16 17 17 16 15 15 14 13 14 16 18 18 19 19 19 18 18 17 16 16 16 15 15 14 14 13 12 11
6 5 4 3 3 4 5 7 8 11 12 14 14 14 17 19 17 14 14 12 13 14 15 16 18 18 19 19 21 22 22 20 18 19 18 17 16 15 15 14 15 17 13
7 5 4 3 3 3 6 6 7 11 13 13 13 15 21 18 16 17 16 15 16 17 20 20 22 23 23 23 22 22 23 21 21 18 16 14 13 14 14 14 12 10 12
8 6 4 2 3 4 6 6 7 10 12 13 14 16 18 16 15 16 16 19 20 22 22 23 24 24 24 24 24 21 21 19 17 18 16 16 13 14 15 16 15 12 13
8 7 4 3 2 4 6 7 7 9 10 14 15 16 17 15 15 16 18 20 21 20 20 22 22 23 22 22 21 20 19 17 14 12 11 11 12 13 14 16 13 13 14
9 7 4 2 2 4 7 7 7 8 10 14 15 16 16 16 16 17 20 22 21 21 21 21 23 23 22 22 22 21 19 16 13 10 11 11 12 13 13 14 13 14 15
9 7 4 2 2 5 6 6 7 9 11 14 15 16 16 17 17 20 23 22 21 22 21 20 22 23 23 24 22 23 24 23 17 14 11 11 12 13 14 13 14 16 17
9 7 3 1 2 4 6 6 7 8 11 13 15 16 17 17 18 22 23 22 21 23 20 21 22 23 24 23 23 25 23 21 21 20 19 17 16 15 15 16 18 18 20
9 6 3 0 2 4 5 6 7 9 11 12 14 16 17 18 20 23 24 24 22 22 22 22 23 24 25 25 26 26 25 24 24 22 20 22 25 26 25 24 24 24 25

GFSGL_925_spd_114.txt.gz
Wind_Speed
19 13 14 9 9 9 11 10 10 9 10 15 18 15 13 15 17 11 10 8 6 5 5 5 6 6 7 7 8 9 11 11 14 17 16 16 18 19 19 20 19 19 19
18 16 18 19 17 16 15 13 11 11 11 11 11 11 10 9 7 7 6 5 4 5 6 6 7 7 9 9 10 11 12 13 14 17 18 18 18 19 21 21 20 20 20
19 21 20 22 22 21 19 18 16 16 15 14 12 10 8 6 4 2 2 4 5 6 7 8 11 11 11 11 12 13 14 14 15 17 18 17 19 21 22 22 22 20 19
20 22 22 20 19 19 19 17 16 14 13 12 10 8 6 4 2 0 2 5 7 9 10 12 13 13 14 15 16 16 17 18 18 16 14 18 23 22 21 21 20 16 16
21 21 20 18 17 17 17 15 14 12 11 10 8 7 5 3 1 2 4 7 9 11 12 12 13 15 15 17 18 19 20 19 17 15 17 20 23 20 18 20 22 20 17
19 19 17 16 15 15 13 12 11 10 9 7 7 5 4 3 4 5 6 10 12 13 15 16 17 17 18 19 21 22 21 17 16 17 19 20 24 22 22 21 21 18 14
16 15 14 13 13 11 10 10 9 8 7 7 7 7 6 7 8 8 9 10 11 13 14 16 16 16 15 17 18 18 20 23 24 27 28 29 26 24 23 20 20 20 20
13 12 10 10 9 8 8 7 6 6 7 7 7 8 8 7 8 7 9 12 13 15 16 17 18 19 19 19 20 22 23 23 22 23 24 26 25 24 22 23 22 23 22
10 8 7 6 6 6 6 6 6 6 7 7 8 8 8 8 10 11 13 15 16 18 18 18 18 19 19 18 18 21 23 23 22 25 26 27 27 27 27 28 23 21 7
7 6 5 4 4 3 3 2 2 4 5 6 7 8 9 10 11 13 14 15 17 18 18 17 16 17 19 19 19 19 22 24 24 23 21 19 20 21 21 23 22 15 12
7 6 5 4 4 2 1 3 5 6 6 7 8 10 11 11 13 13 13 14 15 17 18 18 17 18 20 20 20 21 24 26 25 22 15 13 14 16 17 17 17 17 17
7 6 6 4 2 3 3 3 3 5 7 7 8 9 10 11 12 13 13 13 14 16 17 19 18 18 20 21 21 21 21 21 12 13 17 19 20 20 19 19 17 19 18
8 7 5 3 2 1 2 3 3 5 6 8 8 10 11 11 11 10 11 13 14 15 17 17 20 21 21 20 16 18 22 22 21 22 22 23 20 18 15 14 17 17 18
9 8 6 4 3 1 2 2 3 5 7 8 10 10 10 10 9 10 13 14 14 14 17 18 15 15 17 19 17 16 16 16 17 19 19 18 15 13 14 14 14 14 15
9 8 7 4 2 1 2 1 3 5 6 8 9 10 11 11 11 16 15 15 16 15 18 18 15 15 14 14 14 14 14 14 14 15 15 14 14 14 14 13 13 13 15
10 8 6 5 2 1 1 2 6 6 5 6 7 8 10 10 13 15 16 15 16 15 14 12 12 13 13 14 14 15 15 15 14 15 15 15 16 16 15 15 14 15 16
9 9 7 5 4 2 0 1 5 6 7 7 6 7 8 12 13 14 14 14 11 10 8 10 11 12 13 14 15 16 17 17 17 17 17 16 16 16 16 16 15 14 15
10 9 7 5 4 2 1 1 4 5 7 9 7 8 10 13 13 11 12 10 10 10 9 10 13 14 15 16 18 18 18 18 16 15 15 16 15 15 15 15 15 14 14
11 9 7 6 4 3 0 2 4 5 7 8 9 9 12 15 11 10 10 9 10 11 11 13 15 17 18 20 21 22 21 22 22 21 20 18 16 17 15 14 13 14 15
10 10 8 6 4 2 1 3 4 6 7 8 9 10 14 14 11 11 11 11 12 12 13 15 18 20 21 20 21 21 21 19 18 16 17 15 14 12 13 13 13 14 13
11 9 8 5 4 2 1 2 3 5 6 8 9 10 13 10 10 10 12 12 12 16 16 17 20 20 20 21 22 22 22 18 16 14 14 13 12 11 11 12 13 13 14
11 10 7 6 4 2 1 2 2 3 5 9 10 11 12 10 10 11 12 13 16 16 16 17 19 20 20 21 21 23 23 23 20 14 12 12 12 13 14 14 13 15 14
11 10 8 6 4 2 1 1 2 4 5 8 10 11 11 11 12 12 14 16 17 18 18 16 18 19 20 20 19 19 22 24 26 22 18 15 13 14 14 15 16 14 15
12 10 8 6 4 2 1 1 2 3 6 8 9 10 11 12 13 14 14 17 18 20 19 18 19 19 21 21 19 20 21 23 23 24 23 22 22 18 14 14 14 15 16
12 10 8 6 4 2 0 2 2 4 6 7 9 10 11 12 12 14 16 19 19 20 21 21 21 22 23 22 21 20 24 24 24 25 24 24 24 24 25 23 22 19 20
12 10 8 6 4 2 1 1 2 4 6 7 9 10 11 12 14 16 16 20 21 21 21 22 23 23 24 24 23 26 28 28 29 28 27 25 24 25 24 25 26 25 25

GFSGL_925_spd_117.txt.gz
Wind_Speed
23 19 15 13 11 11 10 9 7 6 7 16 22 18 11 8 7 9 10 9 7 4 5 4 5 3 3 4 5 7 11 12 13 16 16 15 16 15 16 17 18 19 19
21 22 20 19 19 18 16 14 13 13 10 11 12 9 8 6 5 6 5 3 6 5 5 4 5 5 6 7 9 13 14 15 15 16 16 16 17 17 18 18 19 18 19
25 25 23 22 20 18 20 18 18 17 15 12 11 9 7 6 5 4 3 3 5 6 4 5 7 9 11 11 14 14 14 16 16 16 18 17 14 16 23 21 19 17 17
22 23 22 19 20 18 17 16 16 15 14 13 11 10 8 6 4 2 1 3 5 6 7 9 11 13 14 15 16 17 18 18 17 19 19 15 14 19 24 25 14 18 20
20 21 19 17 15 16 15 14 14 12 12 10 9 7 6 4 4 3 4 5 7 10 10 12 13 14 14 14 17 19 21 21 18 16 16 17 20 21 20 20 18 22 20
18 17 16 15 14 13 12 11 11 10 9 7 6 5 4 2 4 5 5 7 10 11 11 12 13 15 16 17 17 20 22 23 22 19 17 17 20 23 22 15 15 17 16
15 14 13 12 11 10 9 8 8 7 6 5 5 4 3 3 4 5 6 8 10 11 12 14 14 15 16 17 18 19 20 22 23 23 23 23 24 24 22 21 21 21 21
13 12 10 9 8 8 7 7 6 6 5 4 5 6 5 3 6 6 9 10 10 12 13 14 15 16 17 17 18 19 21 22 23 21 20 24 27 26 23 23 23 19 21
11 9 7 7 6 6 6 6 5 5 5 5 6 7 7 6 8 9 12 11 12 13 14 14 14 15 17 18 20 19 21 21 21 23 25 26 27 27 26 24 22 18 16
8 7 6 6 5 5 5 4 4 5 5 6 7 8 8 9 9 12 13 13 14 14 15 15 17 18 20 20 22 21 22 22 22 21 21 20 22 18 20 23 23 20 18
8 6 6 5 5 4 3 4 5 6 6 7 9 9 10 10 10 12 13 13 14 16 16 17 17 19 20 21 21 21 23 26 24 17 16 14 13 14 16 17 19 21 16
7 7 6 5 4 3 2 2 3 4 5 7 8 10 9 10 11 11 12 11 13 14 17 17 18 18 22 23 23 21 22 21 20 19 18 17 17 18 19 19 18 17 15
7 7 5 4 3 2 1 1 2 4 6 7 7 9 11 11 11 10 10 14 16 16 17 19 21 20 20 19 18 20 23 20 18 18 18 17 16 16 16 16 15 16 21
8 7 6 4 3 1 1 2 3 3 4 5 7 8 10 10 10 10 14 18 15 16 17 17 18 20 18 17 16 15 15 16 16 17 18 19 18 17 16 18 19 19 17
9 8 7 5 4 2 1 0 1 2 2 4 6 8 10 10 10 14 17 17 17 15 18 17 14 13 14 15 15 16 16 16 16 17 17 17 16 15 15 16 17 17 16
11 9 8 6 4 3 2 2 3 3 5 4 4 6 7 9 12 14 15 15 15 13 12 10 11 11 12 14 15 16 17 18 18 17 19 18 17 16 16 15 15 15 15
11 10 8 7 5 4 2 2 3 3 7 6 7 5 6 11 13 12 12 13 9 9 8 9 10 10 12 14 16 17 19 20 19 19 18 18 17 17 17 16 15 16 16
11 11 9 7 6 4 3 2 2 3 5 4 5 7 7 11 13 9 10 9 10 9 8 10 12 13 15 17 19 18 18 19 20 20 19 18 17 17 16 15 15 16 15
13 11 9 7 6 5 3 3 3 3 5 5 7 7 8 12 10 7 8 8 10 11 12 14 15 16 17 18 20 21 21 22 20 19 19 18 15 15 15 16 16 17 17
12 12 10 8 6 5 4 3 3 3 4 4 6 8 9 13 8 8 9 11 11 11 14 15 17 17 17 19 20 21 21 22 21 18 16 15 15 15 15 15 14 14 14
14 13 10 8 7 5 4 4 3 3 4 4 5 7 9 10 8 9 12 12 11 14 14 16 17 18 17 18 19 20 21 23 23 21 19 15 14 16 14 14 14 15 15
15 14 11 9 7 5 4 3 3 3 5 5 6 7 8 7 8 9 12 13 14 14 15 16 16 17 17 18 20 20 20 22 22 23 22 21 19 16 16 17 16 17 16
15 14 11 9 7 6 4 4 3 3 4 5 6 7 8 9 10 11 13 14 16 15 16 16 17 18 19 20 19 20 23 22 21 25 24 25 25 24 21 19 18 19 17
16 14 12 9 8 6 4 4 3 3 4 5 5 6 8 10 12 13 14 15 17 18 16 17 17 19 20 21 22 22 22 20 28 25 25 26 24 27 25 22 22 22 22
16 13 11 9 8 6 5 4 3 3 4 6 6 6 9 11 12 14 15 17 19 21 20 19 18 20 21 22 23 22 23 28 26 27 28 27 27 25 26 27 25 24 23
15 13 10 9 7 6 5 4 3 3 5 6 6 7 9 12 14 15 17 17 20 22 23 21 21 21 22 23 23 25 26 26 27 28 28 27 26 25 24 23 25 25 25

GFSGL_925_spd_123.txt.gz
Wind_Speed
27 25 24 21 19 17 16 14 11 12 12 14 14 15 15 14 14 16 13 11 8 6 5 5 8 6 4 3 4 5 7 7 12 13 15 14 14 15 14 15 13 11 11
24 24 24 22 20 19 16 14 14 14 15 16 18 19 17 15 13 9 7 6 8 8 6 7 6 4 5 2 4 8 11 14 12 12 12 14 17 17 18 21 22 19 21
26 27 26 26 24 26 24 22 23 21 19 16 14 14 16 15 12 9 7 9 10 10 9 6 3 2 2 2 3 4 3 5 7 10 13 16 16 15 16 16 19 27 29
29 28 26 25 24 24 24 23 24 24 23 22 22 22 20 18 15 14 13 13 12 10 7 3 2 0 2 4 7 9 12 15 17 16 17 17 19 21 22 21 22 23 22
30 29 27 27 26 24 23 23 22 20 19 18 17 15 13 11 10 8 8 7 6 6 7 5 4 4 5 5 7 9 9 13 18 20 20 21 22 21 20 22 22 22 20
26 25 23 22 21 21 20 20 19 17 15 15 13 11 11 11 11 9 7 5 4 7 7 5 5 5 4 6 7 9 9 13 15 15 14 12 16 21 21 19 19 17 13
24 22 20 19 18 18 18 18 17 17 17 16 12 10 10 9 10 10 8 6 5 8 7 6 5 5 7 9 9 8 11 14 15 18 21 23 24 26 24 22 22 23 24
23 21 19 18 18 17 16 15 14 13 12 12 9 8 10 9 9 9 8 4 5 7 6 7 6 6 5 7 10 13 14 14 17 19 20 22 24 22 19 19 21 25 24
19 18 17 18 19 18 16 15 14 12 11 11 10 8 7 7 6 7 9 5 6 7 6 5 6 8 9 8 10 13 15 17 19 19 18 19 19 21 19 19 19 16 14
20 19 18 17 15 14 12 10 10 8 10 9 10 8 6 6 4 5 6 7 5 6 6 5 5 7 7 9 11 11 12 18 21 16 13 14 16 18 18 17 19 18 16
20 19 17 16 15 12 10 8 8 8 9 10 9 9 9 7 5 4 5 7 6 6 7 9 9 8 11 11 13 14 15 15 13 17 17 18 17 16 15 14 15 11 9
19 18 17 14 13 13 11 11 8 10 10 9 9 10 7 6 5 6 6 7 7 7 8 9 10 11 11 10 10 11 13 14 17 18 18 18 18 19 18 18 17 17 18
21 20 17 15 12 11 10 11 9 7 8 8 7 6 7 7 5 5 6 7 7 8 7 8 9 8 8 8 10 11 12 15 16 15 17 17 17 20 20 19 18 16 17
22 19 16 14 12 10 9 8 8 7 5 5 5 4 3 3 4 6 8 8 8 9 6 9 7 8 9 9 10 12 13 14 16 19 21 22 21 21 20 18 18 18 18
22 21 17 15 13 12 9 6 5 4 1 2 2 2 3 4 4 5 7 8 9 7 7 8 8 8 10 11 11 13 15 16 17 19 17 17 17 18 20 19 17 16 15
25 23 20 18 15 13 11 9 6 4 4 4 4 4 3 2 5 8 6 7 6 7 5 4 5 8 10 12 14 16 16 15 16 18 19 18 18 19 17 17 17 17 17
29 25 22 18 17 15 13 11 10 6 3 2 2 4 3 4 6 8 5 5 5 6 3 4 5 7 9 11 13 16 15 16 17 16 17 17 21 17 16 17 16 14 14
27 25 23 20 17 15 13 11 9 9 8 6 5 2 3 5 8 5 3 4 5 6 5 7 7 7 9 11 12 15 16 17 17 18 17 19 20 19 18 16 17 15 16
29 26 24 20 18 15 13 11 8 7 6 6 6 2 1 4 6 3 4 5 6 7 7 8 7 9 10 11 13 15 15 16 17 19 17 16 20 21 20 20 20 17 18
28 26 23 22 19 16 13 11 9 7 6 7 5 2 2 4 5 4 4 6 8 7 7 9 10 9 11 12 14 15 17 18 20 19 18 21 16 20 20 20 21 20 19
30 27 24 21 19 17 14 12 9 8 7 5 5 3 1 4 4 5 6 6 9 9 10 11 12 12 11 13 14 16 17 19 19 21 20 22 18 23 23 22 23 24 21
30 27 25 22 19 17 14 11 10 8 6 6 7 3 1 3 5 6 7 8 8 10 11 11 13 14 14 15 16 18 19 20 21 22 24 17 24 26 23 23 23 22 21
29 28 24 22 19 16 14 12 10 8 7 6 7 4 2 3 5 7 8 10 10 11 11 13 13 14 15 16 16 18 19 21 22 22 19 28 24 23 24 26 24 22 20
31 29 26 23 20 17 15 13 10 9 10 7 6 6 3 3 5 7 9 10 11 12 14 16 15 14 14 16 17 18 20 21 22 24 25 28 28 26 24 26 26 24 24
31 30 27 25 21 18 14 12 11 11 9 7 6 6 4 2 5 7 9 11 13 13 15 16 15 15 16 17 18 18 20 21 22 24 25 27 27 28 27 27 26 26 25
30 29 27 23 20 17 15 12 12 12 9 7 6 5 3 4 6 6 9 11 13 15 15 15 16 16 17 18 19 21 23 24 25 26 28 29 26 26 26 26 27 26 25

GFSGL_925_spd_126.txt.gz
Wind_Speed
23 21 21 20 19 18 16 17 13 11 11 12 13 14 14 14 13 13 10 9 11 11 10 11 11 11 10 7 4 3 2 2 3 9 11 13 11 12 14 13 13 14 15
22 22 22 20 19 17 15 13 13 14 12 11 11 10 10 10 9 9 10 10 11 11 10 12 12 7 5 6 4 2 2 4 4 5 8 9 11 13 14 16 14 12 14
22 23 24 22 22 21 18 20 18 16 18 17 15 15 12 11 10 10 8 10 10 9 8 9 8 6 4 2 1 2 2 1 4 4 7 11 14 15 17 17 18 22 22
25 26 27 26 27 26 24 22 22 20 18 18 17 18 18 18 16 15 14 14 13 11 9 8 7 5 4 3 2 2 3 4 5 8 10 13 14 15 15 17 20 20 21
25 26 26 25 25 25 26 24 23 23 23 23 22 20 18 15 13 12 11 10 10 10 9 9 8 6 4 4 1 1 2 4 6 8 9 11 12 14 16 17 19 20 22
27 26 25 25 24 24 24 24 23 21 20 18 16 13 12 12 9 5 5 5 5 6 6 6 6 4 3 1 1 2 2 5 8 11 14 12 17 20 23 23 24 24 11
24 22 22 21 22 21 20 19 18 16 14 14 13 10 12 11 9 9 5 5 5 5 5 4 3 1 1 3 2 3 7 9 10 12 15 17 18 20 21 21 22 17 16
23 22 21 20 19 19 18 18 18 16 12 10 10 10 10 9 7 8 4 4 5 6 5 3 1 0 1 6 8 8 9 11 12 13 16 18 18 19 17 14 17 19 19
20 19 18 18 19 18 17 17 16 14 11 9 9 8 9 9 4 4 5 4 6 5 3 2 3 7 6 4 6 6 8 10 11 11 12 12 12 15 16 17 18 18 13
22 21 20 20 20 19 17 15 13 12 12 11 11 8 9 8 3 3 7 5 4 4 2 2 1 3 4 7 4 2 8 10 6 8 12 13 17 18 13 12 11 11 12
23 22 21 19 17 15 14 13 13 12 13 12 10 9 7 4 3 2 2 2 1 1 2 2 3 5 7 5 3 5 5 4 10 11 12 12 12 13 13 12 12 13 13
25 24 22 19 16 14 13 13 11 12 13 12 12 10 7 4 4 4 1 2 1 3 3 3 4 7 6 1 1 4 7 8 8 10 12 14 14 15 16 16 14 14 14
28 26 24 20 18 17 17 17 16 15 14 14 13 10 8 9 8 2 2 3 2 2 2 4 4 0 3 2 2 4 4 7 11 13 13 14 15 15 14 15 15 14 14
29 27 24 23 20 18 16 16 16 16 15 14 13 11 9 6 4 3 2 3 4 5 2 2 1 1 2 2 4 5 6 8 8 11 13 15 15 16 15 15 16 16 16
30 28 25 23 22 20 17 16 15 12 11 13 11 9 8 6 4 3 2 2 4 4 2 1 1 0 2 1 2 4 6 6 8 11 13 15 16 17 16 15 16 17 15
32 30 28 25 22 21 19 16 10 9 9 9 7 5 7 4 2 3 3 5 3 2 3 2 3 2 2 4 6 7 7 8 10 12 13 15 15 18 17 16 15 13 13
34 32 29 27 25 24 21 20 18 12 9 9 8 7 4 2 1 3 4 4 2 3 3 4 4 3 5 8 7 7 8 11 10 11 13 15 15 16 17 18 18 16 15
33 31 31 29 27 24 22 20 17 18 16 13 9 6 4 1 2 2 3 3 4 3 4 6 5 5 7 8 8 8 9 11 11 12 14 14 16 17 15 17 18 17 18
32 31 29 27 25 23 20 18 16 15 13 11 12 8 5 2 1 1 1 2 4 6 5 7 7 6 8 9 11 12 13 14 14 15 16 15 15 18 16 17 20 20 21
32 29 28 26 24 23 20 19 16 14 13 12 12 8 6 3 1 3 3 4 5 6 6 8 9 9 9 11 13 14 14 15 16 17 17 19 20 21 16 21 22 20 20
34 30 29 27 26 24 22 19 16 14 13 12 11 9 5 5 2 3 5 5 6 8 9 10 11 12 12 12 13 14 16 17 18 19 21 21 23 13 23 23 23 22 22
35 33 31 29 26 23 20 18 16 14 13 12 11 10 6 5 3 3 5 6 7 8 9 10 12 14 14 14 15 16 17 18 19 20 21 22 16 26 23 22 24 21 21
36 33 30 27 25 21 19 17 16 14 13 11 12 12 9 6 3 3 4 6 8 9 10 10 13 15 15 14 14 16 17 18 20 19 22 22 25 22 22 25 23 22 23
35 34 30 28 25 23 20 18 16 13 12 12 13 12 9 6 3 3 5 7 8 10 11 13 15 15 13 14 14 15 16 17 19 21 22 24 25 23 24 23 26 24 25
34 31 29 29 26 24 20 18 16 13 13 12 11 12 10 8 5 4 6 7 9 12 13 14 12 13 15 15 15 15 16 19 21 22 24 25 27 27 26 26 25 25 24
33 28 29 28 25 22 21 19 16 15 14 12 10 11 12 8 5 4 5 7 10 11 13 14 14 12 14 16 16 17 19 19 19 21 23 26 27 27 26 27 26 25 25

GFSGL_925_spd_129.txt.gz
Wind_Speed
18 18 17 17 17 16 15 15 16 15 13 15 16 15 13 11 9 7 8 9 8 8 9 9 9 9 10 9 7 6 3 4 3 2 5 6 6 6 9 10 12 14 14
22 23 21 21 18 20 16 14 15 16 13 14 13 13 11 9 9 9 8 7 7 8 8 10 10 10 9 7 5 4 2 1 1 3 6 7 10 11 12 12 12 11 13
18 18 19 16 15 16 16 15 18 19 16 15 17 16 14 12 11 10 9 8 10 10 10 12 11 9 9 7 5 3 3 2 0 3 6 8 11 11 13 14 14 15 17
20 22 22 21 18 17 16 18 18 18 18 18 16 14 12 12 10 9 8 10 9 9 8 8 9 8 8 7 5 3 3 2 1 3 5 7 9 11 12 13 20 20 23
23 24 24 23 21 20 19 19 18 16 18 19 21 20 17 16 14 13 12 12 10 11 10 9 8 7 4 3 3 2 2 2 1 2 6 9 13 15 16 16 20 22 25
23 24 24 23 20 21 21 22 22 21 20 19 17 17 14 12 8 6 6 8 8 8 9 9 9 9 6 3 2 1 1 1 4 6 7 9 13 16 18 19 21 18 7
22 22 22 21 20 19 18 19 19 18 17 14 13 11 14 13 9 5 4 5 5 6 6 6 5 3 3 2 2 2 4 4 6 8 9 12 16 17 18 21 19 14 14
21 21 20 20 19 17 16 15 16 14 14 12 11 11 12 11 9 8 4 5 6 6 4 4 3 2 2 4 5 3 5 6 8 9 11 12 12 13 12 11 14 16 19
22 21 20 19 18 17 16 16 14 13 12 11 11 10 10 10 7 8 4 6 6 5 4 2 2 4 3 3 5 5 8 9 10 8 8 8 10 12 13 15 14 12 13
23 21 20 20 20 19 17 15 12 9 9 10 10 8 7 7 5 6 6 5 4 4 3 1 2 2 4 6 6 4 7 11 8 10 11 12 10 9 8 8 10 12 12
21 20 19 18 18 16 15 12 11 10 10 10 9 9 8 7 5 3 1 4 3 3 5 3 2 3 7 5 1 4 4 5 9 8 8 9 10 9 9 9 11 12 13
22 20 20 19 18 16 15 14 13 13 13 12 11 11 9 6 6 6 3 1 2 4 4 5 5 7 7 3 4 5 5 5 6 8 11 13 14 14 13 12 12 12 13
24 23 22 19 17 16 16 16 16 16 16 14 14 12 9 7 9 5 4 2 2 2 4 5 6 3 4 8 3 1 3 3 5 7 10 10 13 13 13 14 12 11 12
29 26 25 23 20 18 16 16 16 17 15 14 14 12 9 8 8 6 3 4 5 6 6 5 5 5 3 2 2 2 4 4 5 6 8 9 11 12 12 12 14 16 17
32 30 27 24 22 20 18 17 16 14 14 15 14 13 11 10 7 3 8 6 5 7 7 4 2 2 3 4 5 5 5 5 7 8 9 11 12 12 14 13 14 16 14
33 32 30 27 24 22 20 17 14 12 13 11 10 11 10 6 5 6 6 5 7 2 4 4 6 6 5 5 6 6 8 7 9 10 11 11 13 14 14 16 16 17 16
36 34 32 30 27 25 22 21 17 11 9 10 9 8 8 7 5 6 8 7 5 3 5 6 8 7 7 7 8 8 9 10 11 10 10 13 16 15 16 15 14 17 17
39 36 36 33 31 29 27 24 22 21 20 16 12 10 8 6 5 6 7 7 6 5 7 8 8 8 8 9 8 9 10 11 13 13 13 15 16 17 17 16 17 18 19
40 35 36 34 33 30 28 25 24 22 20 18 17 13 9 8 5 5 6 7 8 8 7 7 8 8 8 11 11 12 13 14 15 15 15 17 17 18 20 21 16 21 21
40 40 37 35 33 30 29 27 25 23 21 19 19 18 14 10 9 8 8 8 8 6 6 5 6 7 7 10 11 13 13 14 15 17 18 19 19 21 20 14 21 21 21
39 37 36 34 33 31 29 28 25 24 22 20 18 16 13 12 10 9 8 9 8 8 7 9 9 9 10 12 14 16 16 19 20 20 20 20 21 20 15 24 22 22 22
39 39 36 36 33 30 29 27 25 23 20 18 17 15 12 12 10 9 7 8 8 9 9 8 9 9 12 14 14 14 16 17 17 18 19 20 21 20 23 25 23 23 23
37 36 35 33 32 29 26 24 23 21 19 17 16 16 16 13 10 8 7 6 6 6 7 8 11 13 13 12 12 13 16 17 19 20 21 21 22 23 23 24 20 23 23
38 37 35 33 30 27 26 24 22 20 18 16 16 18 17 13 10 9 6 5 5 6 7 9 12 12 10 11 12 13 15 16 17 19 22 24 25 25 25 27 25 24 25
38 36 33 31 27 26 24 23 22 19 17 16 16 17 16 13 12 10 7 6 7 7 7 8 8 8 9 10 13 14 14 16 18 19 20 23 27 28 28 27 26 24 25
34 33 31 28 25 25 25 24 21 19 17 17 16 15 15 15 13 10 8 7 8 8 7 8 10 10 12 14 15 15 16 16 17 19 21 23 24 25 24 25 26 25 24

GFSGL_925_spd_132.txt.gz
Wind_Speed
18 20 20 19 19 17 16 14 13 13 13 15 16 17 15 14 15 16 13 10 9 9 11 10 7 7 9 9 8 8 7 3 2 1 1 3 4 5 7 9 10 11 13
19 24 22 21 21 21 19 17 14 14 12 12 14 14 12 10 8 6 6 7 7 7 7 7 10 11 9 8 6 4 3 2 1 2 3 3 5 8 10 12 13 13 14
20 24 23 21 24 25 21 18 15 15 14 12 12 12 9 8 8 7 5 6 7 6 6 8 9 10 9 7 6 5 6 4 2 1 4 5 8 10 12 12 11 14 15
17 19 19 20 22 23 22 21 20 17 17 17 16 15 13 12 9 9 7 7 9 10 9 8 9 8 6 6 4 4 2 2 2 1 3 6 8 11 13 13 16 16 19
21 23 22 22 22 21 21 22 20 19 16 16 16 16 15 14 13 11 11 10 8 9 10 8 7 5 4 3 2 3 3 1 1 2 5 7 10 12 14 14 19 20 22
21 22 21 22 22 22 21 22 23 23 21 19 17 16 14 15 10 9 9 11 10 7 9 10 10 10 8 6 4 2 1 2 3 4 6 7 9 13 15 16 19 20 10
24 23 23 23 23 23 24 24 22 21 19 17 14 10 10 11 8 5 4 5 6 6 6 5 5 4 3 4 5 4 3 3 5 5 6 7 10 13 14 15 12 13 15
23 23 22 22 22 21 19 18 17 15 13 13 12 10 9 11 10 7 5 5 7 7 6 5 2 2 2 2 3 3 2 2 4 7 8 8 10 11 11 15 14 16 21
22 21 20 18 19 18 17 17 16 14 13 12 12 11 9 11 9 7 5 6 7 6 4 3 2 2 2 3 3 4 4 3 6 7 6 8 10 14 12 13 11 12 12
21 20 18 16 16 16 15 15 13 11 11 11 11 10 8 9 7 7 6 7 7 5 2 1 1 2 3 4 3 3 3 4 9 9 14 15 12 10 8 9 8 10 13
19 17 16 14 13 12 13 11 11 10 10 11 10 10 9 7 6 3 3 4 3 3 3 2 1 2 5 3 2 4 4 5 8 10 9 10 10 10 9 9 8 9 9
20 18 16 15 15 15 14 13 12 12 12 12 11 10 9 6 6 4 1 3 3 4 3 5 4 6 3 3 3 3 4 5 4 7 7 9 11 12 14 14 10 9 10
23 22 20 19 17 17 16 15 15 14 13 12 11 10 8 6 7 5 3 3 4 3 5 6 5 6 6 6 5 2 2 2 3 4 7 8 10 12 13 12 14 16 17
27 25 23 22 20 18 16 15 15 15 15 13 12 11 9 7 8 7 5 2 5 7 7 7 6 6 4 2 2 2 3 4 5 6 8 9 11 12 14 15 16 17 18
30 27 26 24 22 20 17 16 15 13 13 13 13 12 11 10 7 4 2 8 5 7 7 5 7 4 3 3 4 5 5 5 6 8 10 12 13 14 16 16 17 17 16
32 30 29 27 23 21 19 16 14 11 11 11 9 9 9 7 5 3 4 5 4 4 4 4 5 6 7 6 6 7 7 7 6 8 10 11 13 15 18 18 18 14 17
36 35 32 30 27 25 22 20 17 11 9 10 9 8 7 6 5 4 4 6 4 4 5 7 7 8 8 7 8 8 8 8 10 10 11 12 15 17 16 19 20 18 17
37 36 36 34 31 28 26 24 20 19 16 13 9 7 7 5 4 4 5 5 5 5 7 8 9 9 10 11 10 8 9 10 12 13 14 15 14 17 19 18 20 21 16
37 34 36 35 32 30 27 24 22 20 18 16 14 11 9 8 6 4 5 6 7 8 9 9 9 9 10 9 12 11 12 14 14 14 12 14 15 19 20 21 22 15 20
36 34 36 34 32 29 28 26 24 23 20 19 18 18 14 13 11 9 9 8 8 8 9 8 6 8 10 8 9 9 11 13 13 15 17 18 19 20 21 19 16 22 20
36 34 37 34 33 32 31 30 27 25 24 22 20 17 17 16 13 11 10 10 9 9 10 10 11 11 10 11 12 13 14 15 16 17 17 17 18 20 21 20 23 24 23
38 37 35 37 35 33 31 29 27 26 24 21 18 15 15 15 13 11 10 9 9 9 9 10 11 11 9 12 14 15 14 14 15 15 17 18 21 20 21 22 23 24 22
33 33 33 32 33 29 27 27 26 24 22 19 17 17 18 18 16 12 10 10 8 7 7 8 10 13 15 15 12 12 13 14 16 17 18 18 20 23 24 24 23 23 24
36 37 36 33 33 31 29 27 25 23 21 19 18 18 19 18 16 12 10 8 7 6 7 9 11 13 11 9 10 11 12 14 14 16 18 21 22 24 27 26 24 24 24
33 32 31 32 31 30 27 24 23 23 21 19 19 18 18 17 15 13 11 8 6 7 8 8 8 9 8 9 11 13 14 13 14 16 19 20 23 24 25 25 25 25 25
32 32 32 31 30 28 27 23 25 24 22 20 18 16 16 17 15 13 11 9 7 8 10 8 9 11 11 12 13 13 13 14 13 15 17 21 22 22 23 24 24 24 23

GFSGL_925_spd_135.txt.gz
Wind_Speed
12 13 18 22 20 20 19 19 16 15 16 16 17 18 19 21 21 21 20 18 14 13 10 9 8 8 10 11 9 7 8 7 4 3 4 2 1 3 7 10 12 13 14
14 17 17 17 17 19 20 20 18 17 16 17 18 15 13 12 12 13 12 11 10 10 10 10 10 10 10 10 10 10 5 4 4 4 2 0 3 6 10 12 13 12 12
17 20 19 20 20 19 21 24 22 22 19 18 18 15 14 12 10 10 10 9 8 8 9 9 10 11 12 10 9 8 6 6 4 2 1 3 4 6 10 11 12 13 13
18 21 21 22 21 21 22 22 22 20 19 19 17 15 12 13 11 10 11 11 11 10 10 10 10 9 9 10 8 7 4 3 2 2 1 2 5 8 11 9 11 11 13
18 18 19 21 21 21 23 23 23 22 20 20 21 19 17 14 12 10 11 12 12 12 11 11 10 8 7 5 4 4 3 3 2 2 1 2 5 7 8 8 10 13 12
23 23 22 22 21 22 23 22 22 23 23 22 22 20 19 17 14 12 12 13 13 13 13 12 12 12 10 7 4 3 2 1 1 0 1 3 5 6 6 8 10 11 11
23 23 23 23 23 23 24 25 24 24 23 21 19 17 16 14 11 7 6 7 8 9 9 9 8 7 6 7 7 5 2 1 1 0 2 3 6 6 6 9 11 14 17
23 23 24 25 25 25 24 23 22 20 18 16 15 13 13 14 11 7 6 7 7 7 6 5 4 3 3 1 2 3 3 1 2 3 2 4 6 6 8 9 11 13 14
23 23 23 23 24 23 21 20 19 18 17 16 14 13 13 12 10 8 7 8 8 7 5 3 1 0 1 1 3 4 3 2 2 1 0 4 7 8 6 8 7 11 12
23 23 22 21 22 21 20 20 18 16 17 16 15 14 12 12 10 9 8 9 8 6 3 2 1 3 3 2 6 6 5 2 2 5 9 8 6 6 7 7 6 7 9
24 23 21 19 19 19 19 17 17 16 16 15 13 12 10 9 8 7 7 7 6 6 5 4 2 3 5 3 1 1 3 5 5 8 4 5 7 8 9 9 8 7 7
26 25 23 22 21 20 17 17 15 15 15 14 13 11 9 8 7 5 4 4 2 2 1 3 3 3 1 2 2 1 5 3 3 2 4 5 6 7 8 7 8 8 9
28 27 25 23 21 19 19 18 16 14 14 13 12 11 10 8 7 6 5 1 1 1 1 1 2 4 6 7 4 3 1 1 1 1 2 4 6 8 9 10 12 10 12
29 27 26 24 22 20 17 15 15 16 14 13 12 11 11 9 9 9 5 3 3 3 2 4 3 5 6 4 2 2 2 4 5 4 5 7 8 9 10 9 11 11 13
29 28 27 26 25 23 20 19 17 14 14 14 13 12 12 11 10 8 6 4 5 3 4 3 2 4 2 2 3 4 5 5 5 6 7 7 8 9 9 11 11 13 13
30 29 29 27 25 24 22 18 16 12 13 12 11 11 12 9 8 9 6 6 5 4 4 3 2 2 4 5 6 6 7 6 6 5 7 8 8 10 12 12 12 12 14
33 32 32 32 29 28 24 21 18 13 12 12 11 11 10 9 11 8 7 6 5 5 4 4 4 4 5 6 7 8 8 7 7 8 10 10 10 11 12 13 15 16 15
35 36 36 35 33 31 29 25 22 21 18 13 11 11 10 10 10 7 5 6 6 4 4 5 5 6 7 7 8 9 9 8 8 10 11 13 11 13 12 16 14 16 19
37 34 36 36 35 33 29 25 23 20 16 15 16 12 12 10 9 6 5 8 6 5 5 6 6 6 6 7 7 8 9 8 9 11 11 9 12 12 15 15 15 16 16
35 36 38 36 33 32 30 28 23 21 19 18 17 16 17 15 12 11 10 9 7 6 6 7 6 6 7 8 8 8 9 10 11 12 12 13 14 14 14 15 18 19 17
36 33 36 34 34 34 33 31 28 26 23 20 19 19 18 16 13 12 11 10 9 7 7 8 7 8 9 8 7 8 9 10 10 12 12 13 13 14 15 17 20 18 21
33 31 33 36 34 33 32 31 29 26 24 20 18 17 16 15 15 13 11 9 9 8 7 7 7 8 9 8 8 10 11 11 11 12 13 13 14 17 15 18 19 19 19
33 33 31 29 30 27 25 28 27 25 22 19 17 17 18 18 16 13 11 10 9 8 7 7 7 8 10 12 11 9 10 12 13 14 15 16 15 16 16 17 20 21 20
31 30 29 27 28 27 27 27 25 22 20 18 18 19 19 19 17 15 11 10 8 6 6 6 7 8 8 6 7 8 10 12 14 14 15 16 17 17 18 20 22 22 23
31 29 27 27 27 27 27 26 23 20 19 19 19 18 17 17 17 16 13 11 8 5 6 6 6 6 7 8 8 10 12 12 12 14 13 15 19 20 21 21 22 23 23
28 27 27 27 29 29 29 27 21 20 21 20 17 17 15 15 16 15 13 12 10 7 7 7 6 7 9 10 11 13 11 11 12 13 14 17 19 18 17 20 21 21 21

GFSGL_925_spd_138.txt.gz
Wind_Speed
14 16 15 12 12 16 16 18 20 20 19 17 16 16 15 15 14 16 17 17 16 14 10 6 6 6 7 9 10 8 6 7 4 3 6 6 3 2 1 4 7 8 9
12 18 17 15 16 14 14 15 16 18 17 18 17 19 20 21 20 17 16 14 14 14 11 11 10 9 8 5 4 4 6 5 4 6 5 4 2 1 3 6 8 8 10
14 17 17 17 16 16 17 16 12 12 17 16 14 12 13 15 17 16 16 15 13 11 11 10 9 8 8 9 8 8 6 5 5 5 3 1 2 2 5 7 7 9 9
14 16 18 18 19 17 19 18 15 15 15 15 15 12 11 10 11 11 10 10 11 10 9 9 10 10 10 10 9 7 5 4 3 3 2 2 2 3 5 6 9 9 11
14 18 18 17 17 17 17 18 18 19 18 18 17 17 15 14 14 14 13 13 13 13 12 11 10 10 11 9 8 6 4 2 2 2 3 3 4 4 5 7 8 10 9
15 18 18 18 15 14 16 16 17 18 18 17 16 15 14 14 13 14 14 13 12 12 11 11 10 9 8 7 6 6 5 3 1 3 3 4 4 3 4 6 7 9 8
17 16 16 15 15 15 17 17 17 18 18 17 14 13 13 12 13 13 13 12 11 10 9 8 8 7 7 6 7 7 4 2 2 2 4 3 4 4 4 7 8 10 11
18 17 17 16 16 16 16 16 16 16 15 13 11 11 11 11 10 10 9 10 9 8 8 6 5 4 4 4 4 4 3 1 0 1 1 3 4 5 6 8 9 9 8
20 20 19 19 18 17 16 15 14 13 12 11 10 10 11 10 10 10 10 9 9 7 6 5 4 3 4 3 5 4 4 3 2 3 5 6 8 8 7 6 4 6 6
18 18 17 17 17 16 15 14 13 13 13 12 11 10 11 10 10 10 9 7 7 5 4 2 3 3 1 3 5 4 5 5 5 3 5 4 3 4 3 2 3 4 5
18 18 17 17 17 17 17 15 15 14 13 12 11 10 9 9 9 9 9 7 6 5 4 3 2 3 4 4 3 3 4 6 3 4 3 1 1 2 2 3 4 3 2
20 19 18 17 16 17 16 15 15 15 14 13 12 10 8 8 8 7 6 6 6 4 3 2 1 3 3 3 1 3 6 2 2 4 2 1 1 1 3 4 5 5 6
23 21 18 17 14 14 14 15 14 14 13 12 12 10 10 8 7 8 7 4 5 3 3 3 2 1 3 4 3 4 5 1 2 3 3 2 3 4 6 6 7 7 9
24 22 21 21 19 18 16 16 15 15 14 13 13 11 10 9 9 9 7 5 5 4 4 2 2 1 6 4 4 6 3 3 5 5 4 4 5 5 7 6 8 10 11
24 23 21 20 22 21 18 17 15 14 14 13 12 12 12 11 12 11 9 7 6 5 3 3 4 3 2 4 5 4 4 4 4 3 5 6 6 6 7 9 10 10 13
27 26 25 24 22 19 18 13 16 13 15 14 12 11 10 9 11 11 9 6 7 6 4 5 5 4 4 5 6 6 5 5 5 4 5 6 7 8 9 10 10 11 13
28 26 25 24 22 22 20 18 16 14 13 13 12 12 11 9 9 10 9 7 8 5 6 5 5 5 5 5 6 6 6 6 5 6 6 8 9 10 10 10 10 13 13
29 28 26 25 22 21 20 19 17 17 16 13 12 11 11 10 11 10 10 6 7 7 6 6 6 6 6 6 6 7 7 7 7 8 9 10 10 8 9 12 13 12 14
30 26 27 24 24 22 20 18 17 16 15 14 13 12 11 12 12 10 9 8 8 8 7 7 6 6 5 5 6 6 7 6 6 7 8 10 8 9 13 14 12 14 15
29 28 29 26 24 24 22 20 18 18 17 16 16 15 15 14 13 11 9 9 8 7 6 6 6 6 6 5 6 6 7 8 9 9 9 10 11 11 12 12 13 14 17
29 27 30 25 24 26 25 24 22 19 18 17 16 16 18 15 12 11 10 9 8 7 6 6 6 6 7 7 7 6 6 7 8 8 8 9 9 10 11 13 18 16 17
27 25 28 26 24 25 25 23 22 20 18 17 15 16 18 13 11 11 10 9 8 7 6 6 5 6 8 7 6 7 9 8 7 7 8 9 10 11 14 14 15 14 16
24 24 23 23 22 21 22 22 22 19 18 16 15 15 18 15 12 11 11 9 8 7 6 6 6 5 5 6 7 8 7 7 7 8 9 11 12 12 13 14 16 16 17
21 21 21 20 20 22 22 21 20 20 21 17 16 14 13 16 12 12 11 9 8 7 5 5 6 6 5 5 5 6 7 7 9 10 11 12 14 13 14 16 18 20 20
19 19 19 19 21 21 21 21 21 22 19 19 15 13 13 13 12 12 11 10 9 7 5 5 5 5 5 6 7 7 8 9 9 9 10 11 15 16 18 18 19 18 18
18 18 18 18 20 20 22 23 23 21 22 19 16 13 14 13 12 12 12 11 10 8 7 6 6 6 6 7 8 9 10 9 9 9 12 15 15 17 16 16 17 18 18

GFSGL_925_spd_141.txt.gz
Wind_Speed
16 17 18 17 17 16 18 17 16 15 17 19 20 20 19 20 19 15 13 11 9 11 14 16 12 6 1 4 9 10 12 10 7 3 6 7 4 5 5 4 4 4 5
14 17 20 20 18 21 19 17 16 16 15 17 19 19 17 17 17 17 16 15 17 17 15 12 10 9 9 10 11 10 10 9 7 7 7 7 7 6 4 6 6 6 8
13 14 15 18 23 22 21 20 20 18 16 15 17 18 16 16 17 18 19 17 13 10 9 8 8 9 9 9 10 10 8 6 5 6 5 5 3 4 5 6 7 8 7
14 15 15 18 21 21 19 19 18 15 13 14 14 17 19 17 14 12 11 11 10 9 8 9 9 10 12 13 11 10 8 6 6 6 5 4 4 5 6 6 6 7 9
14 16 16 16 17 16 17 17 18 17 13 12 14 14 14 11 10 10 10 9 9 9 8 8 9 9 9 9 8 7 5 3 3 3 3 3 5 4 4 5 9 9 10
14 16 18 20 21 20 19 17 20 19 17 16 14 14 14 13 12 11 12 13 13 13 12 10 11 9 8 7 7 5 4 2 2 2 2 5 6 4 2 5 8 9 7
15 15 16 16 16 16 16 15 16 16 15 15 14 13 14 14 14 14 13 14 13 11 10 9 8 8 6 5 6 4 2 1 3 1 5 4 3 2 4 6 8 10 11
16 15 15 15 16 15 15 15 15 15 14 14 13 12 12 11 11 11 11 11 10 8 7 6 5 6 6 5 5 4 3 0 1 0 1 2 3 4 5 7 11 12 12
18 17 17 17 17 17 16 16 14 14 13 12 11 10 10 10 10 10 8 8 7 6 5 4 4 5 6 8 5 6 5 4 2 3 3 7 9 10 10 8 10 7 8
17 16 16 15 14 14 14 13 11 11 11 11 10 9 10 9 9 11 7 6 6 4 4 2 6 3 2 3 6 5 4 5 3 2 5 7 6 5 4 1 6 7 6
19 18 17 16 16 16 15 13 13 12 12 11 11 9 9 8 8 9 8 4 4 4 4 3 3 2 1 2 4 2 2 7 4 2 5 3 3 2 1 2 3 4 4
20 20 19 19 18 19 18 16 15 13 12 10 9 8 7 7 7 6 8 6 6 4 4 3 3 3 4 3 0 1 5 4 1 4 3 3 4 3 4 5 6 7 7
21 20 18 16 14 14 13 13 11 11 11 12 11 9 9 8 7 9 6 4 4 3 3 3 1 2 5 5 6 4 4 1 1 2 4 4 4 5 7 8 9 9 10
22 20 19 18 17 16 14 14 13 14 12 12 12 11 11 10 9 9 8 4 3 3 1 2 1 2 4 4 4 5 2 1 3 5 6 5 5 7 9 8 9 11 12
23 22 20 17 17 15 13 14 13 12 13 13 13 12 12 11 10 11 8 5 5 5 4 2 3 2 2 1 2 2 3 4 5 4 4 6 7 7 8 8 10 11 10
25 24 23 21 22 19 17 14 14 11 15 14 12 11 10 9 12 12 12 10 8 5 3 4 4 4 4 3 4 5 5 6 6 6 7 7 7 8 9 9 10 9 11
26 26 24 23 23 21 20 18 17 16 13 15 13 14 11 10 10 10 9 7 7 5 3 3 4 4 5 5 5 6 7 7 7 7 7 8 9 9 9 9 9 10 12
26 26 24 25 22 22 21 19 17 18 16 14 15 13 13 10 10 11 10 7 8 6 6 5 6 5 6 6 5 6 7 7 7 8 9 9 8 10 11 10 10 13 12
29 26 25 25 22 22 21 19 18 17 16 16 15 14 13 12 12 11 11 8 8 9 9 7 6 6 6 6 6 7 6 8 7 7 7 8 9 9 10 12 13 13 15
29 27 29 25 24 24 23 22 21 20 19 18 17 18 18 17 16 13 11 10 9 8 7 7 7 7 6 6 6 6 6 7 8 9 9 9 10 10 12 12 11 12 16
27 27 30 24 26 26 24 24 23 21 20 19 18 20 21 21 17 14 12 12 11 9 8 7 7 8 7 7 7 7 6 6 7 9 9 9 9 10 10 10 13 16 16
26 26 29 26 23 24 24 23 23 22 21 20 18 21 21 17 15 13 13 12 11 10 10 9 10 10 8 8 7 6 6 8 9 7 7 8 8 10 11 12 13 14 15
24 23 24 23 21 21 23 22 23 23 22 21 22 25 24 19 13 13 14 13 12 11 9 10 9 7 7 8 8 9 9 8 7 7 7 8 10 11 11 12 13 15 16
22 22 22 21 20 21 22 23 24 25 24 24 25 24 23 19 14 15 15 14 13 11 10 9 8 7 7 6 5 6 6 7 8 10 9 10 11 12 13 15 16 17 17
23 22 21 20 21 21 22 23 24 24 24 26 25 26 20 17 16 16 16 15 13 11 11 9 8 8 7 7 7 7 8 9 9 8 9 10 13 15 16 16 16 16 16
22 21 20 20 21 22 23 22 23 24 23 23 28 24 19 17 17 17 17 15 14 13 11 9 7 7 7 6 7 8 10 10 9 8 10 13 15 16 16 17 17 17 16

GFSGL_925_spd_144.txt.gz
Wind_Speed
17 15 16 16 15 17 17 15 15 15 16 20 25 27 26 20 17 16 13 11 12 13 13 11 13 15 14 8 1 4 9 10 9 10 11 8 8 6 6 7 6 5 6
20 19 20 21 20 21 21 19 18 18 16 16 17 18 19 20 19 19 20 17 15 10 11 15 14 11 6 6 11 12 13 11 8 6 6 8 8 9 8 7 9 11 11
17 19 20 21 22 23 24 23 21 21 19 16 15 15 16 16 17 17 17 19 20 18 15 13 10 8 8 9 8 5 5 5 7 7 6 7 6 6 7 10 8 9 7
18 21 21 20 22 22 24 25 25 24 23 20 19 19 19 18 17 17 18 17 15 13 12 10 9 8 7 8 9 9 8 7 6 7 4 5 5 5 6 5 5 8 10
20 19 20 18 22 23 23 23 21 20 21 21 19 18 17 17 16 16 15 13 12 11 9 8 7 8 8 8 9 10 7 5 5 4 3 3 4 5 4 1 6 8 10
20 21 21 21 21 21 21 20 21 21 20 20 18 16 15 15 13 13 12 13 12 12 12 11 12 11 11 9 8 7 5 4 3 2 1 3 4 1 3 4 7 10 5
21 21 23 23 23 24 25 24 22 21 20 19 18 17 19 16 15 17 17 16 16 14 13 13 11 8 8 9 8 6 2 1 1 2 4 5 7 6 4 6 8 11 11
21 20 20 21 22 21 21 21 21 21 21 20 18 17 18 16 15 16 16 15 15 13 10 8 6 8 6 6 3 2 1 4 4 3 2 3 5 6 4 6 9 11 11
21 21 21 22 23 23 23 22 21 21 19 17 15 15 16 15 13 13 12 11 11 10 9 8 7 4 4 7 5 2 4 6 3 3 4 7 9 7 9 9 5 6 7
23 23 23 23 25 23 22 21 19 18 18 17 17 13 12 14 13 14 10 11 11 9 4 2 4 4 2 1 4 5 5 7 5 2 5 7 6 5 6 3 5 5 6
25 23 21 21 21 20 19 18 17 17 16 16 13 10 9 11 13 13 12 9 8 8 7 5 5 3 3 2 1 1 2 5 4 3 8 4 4 3 2 2 3 4 4
26 25 23 22 22 21 20 19 18 18 18 17 16 16 9 9 10 11 10 10 9 8 8 7 5 4 3 2 0 2 2 2 4 4 5 4 4 4 5 5 7 7 7
28 26 25 23 22 21 21 20 18 17 17 16 16 13 13 8 8 8 8 9 9 8 7 6 3 2 1 4 4 4 4 2 3 5 6 5 6 6 8 9 8 9 9
30 28 27 26 24 22 21 20 20 19 18 17 15 14 13 12 9 10 7 5 6 6 4 3 3 1 2 3 3 4 5 4 4 5 6 6 6 7 9 8 7 9 11
31 29 28 26 24 23 21 21 19 19 19 20 18 17 19 15 13 9 9 6 5 6 8 6 2 2 1 1 2 3 4 4 6 5 5 6 8 7 8 7 9 10 11
28 28 29 28 26 25 24 21 17 15 16 15 14 15 13 10 13 14 13 10 9 9 5 5 4 3 4 3 5 6 7 7 7 7 7 7 7 7 10 9 10 10 10
28 28 28 28 29 28 27 27 23 17 16 15 14 15 14 14 16 16 13 11 8 7 5 3 4 4 4 5 7 7 9 8 8 7 7 7 8 9 7 10 11 8 12
31 32 33 31 32 30 29 27 25 24 21 18 16 16 14 11 13 12 12 10 10 8 6 6 5 5 6 7 6 7 7 7 6 7 7 7 7 9 11 9 9 13 16
32 32 32 32 30 30 28 26 23 21 22 21 19 16 16 14 13 13 12 10 11 12 9 9 8 7 7 8 8 8 7 6 6 7 7 7 7 8 9 11 13 12 12
31 31 33 34 29 30 29 27 25 24 23 24 24 23 19 17 18 17 15 14 11 12 10 9 9 7 7 7 7 6 6 6 6 7 7 8 8 9 10 11 12 10 15
30 28 32 32 32 34 33 31 29 27 26 26 24 23 24 25 22 19 17 11 12 12 11 11 10 8 8 7 7 7 7 6 6 7 8 8 8 8 9 10 12 13 14
31 30 33 31 30 30 30 30 29 29 28 27 25 22 22 22 22 20 14 11 14 14 13 12 12 9 8 7 7 7 7 6 8 9 8 7 7 8 10 11 12 13 14
32 30 32 27 29 28 27 28 30 32 31 30 29 27 27 23 21 20 13 15 16 14 13 12 10 8 6 6 7 8 9 10 8 6 6 8 10 12 12 13 13 16 16
32 31 31 29 27 29 29 30 31 31 30 28 29 28 29 27 25 19 15 16 14 13 11 10 7 6 7 5 5 4 4 6 7 7 10 9 9 8 9 12 14 15 15
31 30 31 31 29 30 30 30 29 29 28 29 30 29 28 27 24 16 16 15 13 12 12 10 8 7 6 6 5 6 7 8 10 9 8 9 12 14 15 16 13 16 17
31 30 29 30 30 30 30 29 28 27 30 30 29 29 28 27 19 16 16 14 13 13 12 11 9 7 7 6 6 6 8 9 11 8 9 11 13 15 16 17 17 16 16

GFSGL_925_spd_147.txt.gz
Wind_Speed
13 14 14 15 15 15 14 12 18 24 25 26 27 26 24 20 19 23 20 21 24 25 23 22 22 19 18 16 13 9 4 2 6 6 8 8 7 7 7 7 6 6 6
13 15 16 15 16 18 17 15 15 16 16 22 26 25 24 19 17 18 20 18 21 20 16 12 14 13 10 7 6 6 7 8 7 4 5 6 7 6 8 7 6 7 9
17 18 18 18 20 21 21 20 19 19 17 16 18 19 18 16 17 18 18 16 12 9 7 6 9 10 12 11 10 11 7 5 4 4 4 5 5 7 6 5 6 5 6
20 20 20 21 22 22 21 21 20 21 22 20 18 17 17 17 16 16 16 15 15 14 14 13 12 11 10 9 7 7 7 7 6 6 4 4 4 3 3 4 3 6 8
22 22 22 22 22 22 22 21 20 21 22 23 23 21 19 18 16 16 16 16 15 13 10 9 8 7 6 7 8 9 8 8 7 5 4 2 2 3 3 2 1 6 6
23 22 22 22 22 21 21 22 22 21 21 22 22 21 19 17 16 16 16 16 15 14 13 11 11 10 10 9 9 7 4 5 5 4 2 2 0 3 4 1 2 3 3
22 21 21 21 22 21 22 22 22 22 21 21 20 20 19 17 14 14 15 17 17 16 16 15 14 12 12 12 10 8 7 6 3 3 6 7 5 2 1 2 3 4 7
23 22 23 24 25 25 24 23 23 22 22 22 23 23 23 19 17 18 17 18 18 17 14 12 12 11 9 8 6 6 6 5 3 5 4 4 2 3 4 4 4 8 8
23 23 22 25 25 25 25 24 23 23 21 21 21 22 23 19 16 17 17 17 17 16 13 12 11 10 8 5 6 6 10 11 9 5 5 5 4 4 4 4 1 3 3
26 26 27 27 28 27 26 25 24 21 21 20 19 18 19 18 13 13 13 14 14 12 9 8 6 5 3 2 6 5 12 12 6 4 2 4 4 2 5 6 7 5 5
30 30 29 29 28 27 27 25 25 24 23 21 20 18 18 18 15 13 12 12 12 12 9 10 7 5 6 5 3 3 4 7 4 2 3 6 3 2 1 1 2 4 4
35 33 31 30 29 30 28 27 26 26 26 22 21 18 16 17 16 14 14 12 12 14 13 10 9 8 6 5 4 4 4 3 2 2 7 2 3 3 3 4 6 6 6
37 35 34 31 31 30 30 29 28 28 26 26 24 21 18 15 15 12 12 11 11 11 10 8 6 3 2 3 2 1 1 2 1 2 6 5 5 5 6 8 6 7 6
38 36 34 32 30 29 27 28 28 28 26 26 23 19 17 15 15 14 13 12 12 11 10 6 4 3 4 3 1 2 4 2 1 3 5 5 6 6 7 6 5 6 8
37 37 36 34 32 30 27 27 25 23 23 24 22 22 22 19 17 12 11 11 10 10 10 9 6 4 4 3 1 1 2 4 4 4 4 5 6 8 7 5 6 7 8
33 33 35 34 31 29 27 23 18 17 17 15 15 16 16 8 13 11 10 9 9 13 11 8 6 5 4 2 1 5 5 5 5 5 6 7 7 6 8 7 6 9 9
33 31 32 35 35 33 31 29 24 18 15 14 13 13 13 13 13 16 13 10 13 11 8 6 7 5 5 4 4 6 5 5 5 6 6 6 7 7 6 8 9 6 9
36 37 34 34 33 34 33 31 28 27 25 19 16 16 15 13 19 18 12 11 11 8 7 7 6 7 5 6 5 5 5 5 6 5 5 5 4 5 7 6 7 10 12
35 32 34 35 34 33 32 30 28 26 26 24 20 17 16 15 16 14 13 13 13 13 9 8 8 7 6 6 6 5 4 4 3 3 4 6 5 6 8 9 9 9 9
32 31 34 33 32 31 31 31 29 26 25 25 26 24 21 19 19 18 16 15 12 12 12 9 8 7 5 5 4 4 4 3 3 3 4 5 6 6 7 8 9 9 12
36 34 35 34 33 33 32 30 30 28 28 29 28 26 25 25 24 21 17 19 15 12 10 8 7 6 5 4 4 4 4 4 4 4 7 7 6 7 6 8 10 11 11
36 34 34 33 33 31 32 31 30 29 27 26 25 24 23 22 23 20 18 17 11 9 9 9 7 7 6 6 5 4 5 4 4 7 7 4 4 5 7 10 11 10 12
35 34 32 31 31 30 30 31 30 28 27 25 23 23 26 24 23 19 18 14 9 11 10 9 8 7 6 4 2 4 6 6 7 4 3 5 8 10 10 10 11 13 13
35 34 32 31 31 31 30 30 29 29 27 26 25 26 27 25 23 20 17 11 11 12 10 8 6 5 3 3 2 2 3 3 3 4 7 9 7 7 10 12 14 15 12
35 34 32 32 31 30 28 27 28 28 28 27 26 26 26 23 20 18 16 12 12 12 9 7 6 4 4 4 3 4 5 5 6 7 8 8 9 12 13 14 15 16 15
34 33 32 30 30 29 29 28 27 28 27 27 27 26 25 23 21 18 16 13 13 10 9 8 7 5 7 6 5 5 4 5 7 7 5 7 10 12 13 15 15 14 15

GFSGL_925_spd_150.txt.gz
Wind_Speed
6 7 8 9 7 5 5 9 18 22 24 29 31 29 29 30 27 24 24 24 25 20 19 18 18 18 18 18 17 15 12 7 6 6 8 9 8 6 7 6 5 4 3
8 9 9 8 8 10 9 12 17 22 21 23 24 24 24 22 22 23 25 22 22 20 22 25 22 19 17 13 11 4 4 2 4 7 7 7 6 8 9 8 5 4 5
12 12 12 12 12 12 13 14 14 15 18 21 23 24 24 24 24 25 25 23 23 22 19 13 14 7 6 5 4 6 6 5 5 5 5 6 5 8 6 5 4 3 4
14 15 17 15 15 15 16 16 16 14 15 17 19 20 20 19 18 18 21 22 20 14 9 6 6 5 4 4 4 3 4 6 5 6 6 5 4 5 4 3 2 2 6
18 20 20 18 17 18 18 17 17 17 16 16 16 16 15 16 16 17 15 14 13 12 11 8 6 4 4 4 5 8 8 9 9 7 5 3 3 3 2 2 1 4 2
21 21 21 19 18 18 19 19 20 21 21 21 21 20 18 16 14 13 14 15 14 12 11 10 9 9 8 8 8 7 6 8 7 5 4 3 3 3 4 2 1 3 2
21 20 21 20 19 19 20 20 20 21 20 21 20 20 19 17 15 15 14 15 15 15 15 15 15 13 13 13 11 10 8 4 2 2 4 3 3 2 2 2 3 3 4
22 21 20 20 20 19 19 20 20 19 20 21 21 20 20 18 16 17 17 18 19 17 15 13 13 13 11 9 6 7 6 4 5 5 5 4 2 2 4 4 3 4 5
20 20 22 23 23 22 23 23 22 23 23 23 23 22 22 19 17 18 19 18 17 15 12 11 10 9 6 5 5 6 8 7 6 7 8 7 5 4 4 3 3 3 0
21 23 25 25 24 24 24 23 22 23 23 23 22 20 18 18 15 15 14 15 16 15 12 10 8 7 5 3 5 7 12 12 10 6 2 1 5 0 3 5 6 5 3
25 25 25 25 25 25 24 24 24 23 22 21 21 19 17 15 14 12 11 11 13 13 11 10 6 4 4 3 1 3 9 11 8 4 3 2 1 2 2 0 1 2 2
29 28 28 27 27 27 26 25 23 22 22 21 19 17 15 14 12 12 11 10 11 11 11 10 9 7 5 5 6 5 7 8 8 5 2 5 2 3 1 2 5 5 5
32 30 30 30 30 29 28 26 24 22 21 19 19 18 17 14 13 12 10 10 10 10 10 9 8 6 3 3 3 3 1 2 2 1 5 5 3 4 6 6 6 6 6
34 33 32 32 32 31 29 29 27 26 23 22 19 18 16 16 15 15 12 13 13 12 11 8 4 4 4 3 2 1 1 1 1 2 2 3 4 4 5 6 6 4 6
35 35 35 34 34 33 32 32 29 27 24 26 23 22 22 20 18 15 14 14 13 13 10 8 5 4 3 3 3 1 1 2 4 4 3 4 4 5 6 5 6 6 7
31 33 34 32 33 33 30 26 23 20 20 17 16 18 18 12 18 15 12 11 11 10 9 7 5 5 5 5 3 1 2 4 4 4 4 5 6 6 6 5 4 6 7
33 33 33 34 34 32 29 27 23 20 18 17 15 16 14 14 16 15 13 10 9 12 9 8 7 6 5 6 3 3 3 4 4 5 5 6 5 6 6 5 7 4 7
34 33 33 35 34 33 32 29 27 26 24 21 18 17 17 15 16 16 14 13 14 14 10 9 7 6 5 4 4 3 3 3 4 5 4 4 4 4 4 5 6 8 10
34 31 32 34 33 33 31 28 27 25 25 23 20 17 17 15 18 17 15 14 16 15 9 7 5 5 6 5 4 4 4 3 3 3 4 5 5 5 6 6 6 7 7
34 34 36 34 32 31 31 31 29 27 26 25 24 22 20 21 23 21 20 16 12 11 10 8 6 6 6 4 4 4 3 2 2 2 3 4 5 5 6 6 6 7 9
32 32 34 32 32 33 33 33 32 30 29 27 25 23 24 25 25 23 20 16 11 10 7 9 7 7 5 4 4 4 4 4 4 3 4 6 5 4 3 4 7 8 7
37 35 33 34 33 32 33 32 32 32 29 27 25 23 24 23 23 21 20 13 11 8 7 7 6 6 5 5 5 4 4 5 4 5 6 3 3 4 7 8 8 8 9
36 34 32 32 33 31 30 31 30 29 28 26 25 25 27 26 23 21 19 11 12 7 7 7 7 6 5 4 3 3 2 4 5 3 1 3 7 8 7 9 10 12 14
35 35 34 33 31 30 31 30 29 27 27 25 24 25 28 26 23 21 15 12 10 8 8 7 6 5 4 3 3 1 2 2 2 2 5 8 6 7 9 11 12 13 13
35 34 33 33 31 32 30 28 27 26 26 25 24 24 24 23 21 17 13 14 10 10 9 7 6 5 3 4 3 2 3 3 4 5 6 6 7 8 11 12 13 15 14
35 33 33 31 31 30 29 28 27 26 25 24 24 24 23 21 19 16 16 15 11 11 9 9 7 4 3 5 5 4 3 3 4 5 4 6 9 11 12 14 15 14 16